Wetterdaten: Freitag, 26.05.2017
Datum Zeit Temp. A. Pool Temp. Feuchte A. Luftdruck Regen Wind Richtung Richtung Sonnenschein ET UV Solar Taupunkt Windchill Windben Empfang
26.05.2017 00:00 13,6 C 21,1 C 75 % 1020,3 hPa 0,0 l/m 2,1 km/h (1 Bft) S-SW 194 0 min 0,000 mm 0,0 UV-I 0 W/m 9,3 C 13,6 C 3,2 km/h (1 Bft) 96,55 %
26.05.2017 00:04 13,5 C 21,1 C 76 % 1020,3 hPa 0,0 l/m 3,2 km/h (1 Bft) S-SW 194 0 min 0,000 mm 0,0 UV-I 0 W/m 9,4 C 13,5 C 6,4 km/h (2 Bft) 98,86 %
26.05.2017 00:05 13,4 C 21,1 C 76 % 1020,3 hPa 0,0 l/m 2,8 km/h (1 Bft) S-SW 194 0 min 0,000 mm 0,0 UV-I 0 W/m 9,3 C 13,4 C 4,8 km/h (1 Bft) 100,00 %
26.05.2017 00:06 13,4 C 21,1 C 76 % 1020,3 hPa 0,0 l/m 3,7 km/h (1 Bft) S-SW 194 0 min 0,000 mm 0,0 UV-I 0 W/m 9,3 C 13,4 C 4,8 km/h (1 Bft) 100,00 %
26.05.2017 00:10 13,3 C 21,1 C 77 % 1020,2 hPa 0,0 l/m 3,8 km/h (1 Bft) S-SW 194 0 min 0,000 mm 0,0 UV-I 0 W/m 9,4 C 13,3 C 6,4 km/h (2 Bft) 97,83 %
26.05.2017 00:12 13,3 C 21,1 C 77 % 1020,2 hPa 0,0 l/m 3,3 km/h (1 Bft) S-SW 194 0 min 0,000 mm 0,0 UV-I 0 W/m 9,4 C 13,3 C 6,4 km/h (2 Bft) 100,00 %
26.05.2017 00:15 13,3 C 21,1 C 78 % 1020,2 hPa 0,0 l/m 3,3 km/h (1 Bft) S-SW 193 0 min 0,000 mm 0,0 UV-I 0 W/m 9,5 C 13,3 C 4,8 km/h (1 Bft) 100,00 %
26.05.2017 00:16 13,3 C 21,1 C 77 % 1020,2 hPa 0,0 l/m 3,5 km/h (1 Bft) S-SW 193 0 min 0,000 mm 0,0 UV-I 0 W/m 9,4 C 13,3 C 4,8 km/h (1 Bft) 100,00 %
26.05.2017 00:20 13,3 C 21,1 C 77 % 1020,1 hPa 0,0 l/m 3,7 km/h (1 Bft) S 190 0 min 0,000 mm 0,0 UV-I 0 W/m 9,4 C 13,3 C 8,0 km/h (2 Bft) 100,00 %
26.05.2017 00:22 13,3 C 21,1 C 77 % 1020,1 hPa 0,0 l/m 3,8 km/h (1 Bft) S-SW 194 0 min 0,000 mm 0,0 UV-I 0 W/m 9,4 C 13,3 C 6,4 km/h (2 Bft) 100,00 %
26.05.2017 00:25 13,3 C 21,1 C 77 % 1020,1 hPa 0,0 l/m 3,8 km/h (1 Bft) S-SW 194 0 min 0,000 mm 0,0 UV-I 0 W/m 9,4 C 13,3 C 6,4 km/h (2 Bft) 100,00 %
26.05.2017 00:26 13,3 C 21,1 C 77 % 1020,1 hPa 0,0 l/m 1,8 km/h (1 Bft) S-SW 193 0 min 0,000 mm 0,0 UV-I 0 W/m 9,4 C 13,3 C 4,8 km/h (1 Bft) 100,00 %
26.05.2017 00:30 13,3 C 21,1 C 77 % 1020,1 hPa 0,0 l/m 2,0 km/h (1 Bft) S-SW 193 0 min 0,000 mm 0,0 UV-I 0 W/m 9,4 C 13,3 C 3,2 km/h (1 Bft) 100,00 %
26.05.2017 00:32 13,3 C 21,1 C 77 % 1020,1 hPa 0,0 l/m 1,5 km/h (1 Bft) S-SW 193 0 min 0,000 mm 0,0 UV-I 0 W/m 9,4 C 13,3 C 3,2 km/h (1 Bft) 100,00 %
26.05.2017 00:35 13,3 C 21,1 C 77 % 1020,1 hPa 0,0 l/m 1,8 km/h (1 Bft) S-SW 193 0 min 0,000 mm 0,0 UV-I 0 W/m 9,4 C 13,3 C 3,2 km/h (1 Bft) 98,59 %
26.05.2017 00:36 13,3 C 21,1 C 77 % 1020,1 hPa 0,0 l/m 2,8 km/h (1 Bft) S-SW 193 0 min 0,000 mm 0,0 UV-I 0 W/m 9,4 C 13,3 C 3,2 km/h (1 Bft) 100,00 %
26.05.2017 00:40 13,4 C 21,1 C 76 % 1020,1 hPa 0,0 l/m 3,1 km/h (1 Bft) S-SW 193 0 min 0,000 mm 0,0 UV-I 0 W/m 9,3 C 13,4 C 6,4 km/h (2 Bft) 96,81 %
26.05.2017 00:42 13,4 C 21,1 C 76 % 1020,1 hPa 0,0 l/m 5,3 km/h (1 Bft) S-SW 193 0 min 0,000 mm 0,0 UV-I 0 W/m 9,3 C 13,4 C 6,4 km/h (2 Bft) 97,78 %
26.05.2017 00:45 13,3 C 21,1 C 76 % 1020,0 hPa 0,0 l/m 5,1 km/h (1 Bft) S-SW 193 0 min 0,000 mm 0,0 UV-I 0 W/m 9,2 C 13,3 C 6,4 km/h (2 Bft) 100,00 %
26.05.2017 00:46 13,4 C 21,1 C 76 % 1020,0 hPa 0,0 l/m 4,9 km/h (1 Bft) S-SW 193 0 min 0,000 mm 0,0 UV-I 0 W/m 9,3 C 13,4 C 6,4 km/h (2 Bft) 100,00 %
26.05.2017 00:50 13,3 C 21,1 C 76 % 1020,0 hPa 0,0 l/m 4,8 km/h (1 Bft) S-SW 193 0 min 0,000 mm 0,0 UV-I 0 W/m 9,2 C 13,3 C 8,0 km/h (2 Bft) 100,00 %
26.05.2017 00:52 13,3 C 21,1 C 76 % 1020,0 hPa 0,0 l/m 5,1 km/h (1 Bft) S-SW 195 0 min 0,000 mm 0,0 UV-I 0 W/m 9,2 C 13,3 C 8,0 km/h (2 Bft) 100,00 %
26.05.2017 00:55 13,4 C 21,1 C 76 % 1020,0 hPa 0,0 l/m 3,9 km/h (1 Bft) S-SW 195 0 min 0,000 mm 0,0 UV-I 0 W/m 9,3 C 13,4 C 6,4 km/h (2 Bft) 100,00 %
26.05.2017 00:56 13,3 C 21,1 C 76 % 1020,0 hPa 0,0 l/m 2,4 km/h (1 Bft) S-SW 195 0 min 0,000 mm 0,0 UV-I 0 W/m 9,2 C 13,3 C 4,8 km/h (1 Bft) 100,00 %
26.05.2017 01:00 13,4 C 21,1 C 76 % 1020,0 hPa 0,0 l/m 4,7 km/h (1 Bft) S-SW 209 0 min 0,025 mm 0,0 UV-I 0 W/m 9,3 C 13,4 C 9,7 km/h (2 Bft) 100,00 %
26.05.2017 01:02 13,3 C 21,1 C 76 % 1020,0 hPa 0,0 l/m 4,9 km/h (1 Bft) S-SW 212 0 min 0,000 mm 0,0 UV-I 0 W/m 9,2 C 13,3 C 8,0 km/h (2 Bft) 100,00 %
26.05.2017 01:05 13,3 C 21,1 C 76 % 1019,9 hPa 0,0 l/m 3,6 km/h (1 Bft) S-SW 205 0 min 0,000 mm 0,0 UV-I 0 W/m 9,2 C 13,3 C 6,4 km/h (2 Bft) 100,00 %
26.05.2017 01:06 13,3 C 21,1 C 76 % 1020,0 hPa 0,0 l/m 5,4 km/h (1 Bft) S-SW 205 0 min 0,000 mm 0,0 UV-I 0 W/m 9,2 C 13,3 C 8,0 km/h (2 Bft) 100,00 %
26.05.2017 01:10 13,4 C 21,1 C 75 % 1019,9 hPa 0,0 l/m 5,6 km/h (1 Bft) S-SW 209 0 min 0,000 mm 0,0 UV-I 0 W/m 9,1 C 13,4 C 9,7 km/h (2 Bft) 98,97 %
26.05.2017 01:12 13,4 C 21,1 C 75 % 1019,9 hPa 0,0 l/m 5,0 km/h (1 Bft) S-SW 212 0 min 0,000 mm 0,0 UV-I 0 W/m 9,1 C 13,4 C 6,4 km/h (2 Bft) 97,87 %
26.05.2017 01:15 13,4 C 21,1 C 75 % 1019,9 hPa 0,0 l/m 4,4 km/h (1 Bft) S-SW 212 0 min 0,000 mm 0,0 UV-I 0 W/m 9,1 C 13,4 C 6,4 km/h (2 Bft) 96,10 %
26.05.2017 01:16 13,3 C 21,1 C 75 % 1019,9 hPa 0,0 l/m 4,1 km/h (1 Bft) S-SW 212 0 min 0,000 mm 0,0 UV-I 0 W/m 9,0 C 13,3 C 4,8 km/h (1 Bft) 100,00 %
26.05.2017 01:20 13,3 C 21,1 C 76 % 1019,9 hPa 0,0 l/m 4,4 km/h (1 Bft) S-SW 211 0 min 0,000 mm 0,0 UV-I 0 W/m 9,2 C 13,3 C 6,4 km/h (2 Bft) 94,00 %
26.05.2017 01:22 13,3 C 21,1 C 76 % 1019,9 hPa 0,0 l/m 2,9 km/h (1 Bft) S-SW 211 0 min 0,000 mm 0,0 UV-I 0 W/m 9,2 C 13,3 C 4,8 km/h (1 Bft) 95,24 %
26.05.2017 01:25 13,3 C 21,1 C 76 % 1019,9 hPa 0,0 l/m 2,8 km/h (1 Bft) S-SW 211 0 min 0,000 mm 0,0 UV-I 0 W/m 9,2 C 13,3 C 6,4 km/h (2 Bft) 94,52 %
26.05.2017 01:26 13,2 C 21,1 C 76 % 1019,9 hPa 0,0 l/m 2,3 km/h (1 Bft) S-SW 211 0 min 0,000 mm 0,0 UV-I 0 W/m 9,1 C 13,2 C 3,2 km/h (1 Bft) 94,44 %
26.05.2017 01:30 13,2 C 21,1 C 76 % 1019,9 hPa 0,0 l/m 3,7 km/h (1 Bft) S-SW 211 0 min 0,000 mm 0,0 UV-I 0 W/m 9,1 C 13,2 C 8,0 km/h (2 Bft) 96,00 %
26.05.2017 01:32 13,2 C 21,1 C 76 % 1019,9 hPa 0,0 l/m 3,2 km/h (1 Bft) S-SW 209 0 min 0,000 mm 0,0 UV-I 0 W/m 9,1 C 13,2 C 4,8 km/h (1 Bft) 93,62 %
26.05.2017 01:35 13,2 C 21,1 C 76 % 1019,9 hPa 0,0 l/m 2,6 km/h (1 Bft) S-SW 209 0 min 0,000 mm 0,0 UV-I 0 W/m 9,1 C 13,2 C 4,8 km/h (1 Bft) 96,05 %
26.05.2017 01:36 13,2 C 21,1 C 76 % 1019,9 hPa 0,0 l/m 3,1 km/h (1 Bft) S-SW 209 0 min 0,000 mm 0,0 UV-I 0 W/m 9,1 C 13,2 C 4,8 km/h (1 Bft) 91,67 %
26.05.2017 01:40 13,2 C 21,1 C 77 % 1020,0 hPa 0,0 l/m 2,7 km/h (1 Bft) S-SW 209 0 min 0,000 mm 0,0 UV-I 0 W/m 9,3 C 13,2 C 6,4 km/h (2 Bft) 96,12 %
26.05.2017 01:42 13,1 C 21,1 C 77 % 1020,0 hPa 0,0 l/m 2,0 km/h (1 Bft) S-SW 209 0 min 0,000 mm 0,0 UV-I 0 W/m 9,2 C 13,1 C 4,8 km/h (1 Bft) 91,49 %
26.05.2017 01:45 13,1 C 21,1 C 77 % 1020,0 hPa 0,0 l/m 2,0 km/h (1 Bft) S-SW 209 0 min 0,000 mm 0,0 UV-I 0 W/m 9,2 C 13,1 C 4,8 km/h (1 Bft) 94,29 %
26.05.2017 01:46 13,1 C 21,1 C 77 % 1020,0 hPa 0,0 l/m 3,3 km/h (1 Bft) S-SW 209 0 min 0,000 mm 0,0 UV-I 0 W/m 9,2 C 13,1 C 4,8 km/h (1 Bft) 100,00 %
26.05.2017 01:50 13,1 C 21,1 C 77 % 1019,9 hPa 0,0 l/m 4,2 km/h (1 Bft) S-SW 209 0 min 0,000 mm 0,0 UV-I 0 W/m 9,2 C 13,1 C 6,4 km/h (2 Bft) 95,28 %
26.05.2017 01:52 13,1 C 21,1 C 78 % 1019,9 hPa 0,0 l/m 3,9 km/h (1 Bft) S-SW 209 0 min 0,000 mm 0,0 UV-I 0 W/m 9,4 C 13,1 C 4,8 km/h (1 Bft) 91,43 %
26.05.2017 01:55 13,0 C 21,1 C 78 % 1019,9 hPa 0,0 l/m 3,0 km/h (1 Bft) S-SW 209 0 min 0,000 mm 0,0 UV-I 0 W/m 9,3 C 13,0 C 4,8 km/h (1 Bft) 98,65 %
26.05.2017 01:56 13,0 C 21,1 C 78 % 1019,9 hPa 0,0 l/m 3,7 km/h (1 Bft) S-SW 209 0 min 0,000 mm 0,0 UV-I 0 W/m 9,3 C 13,0 C 4,8 km/h (1 Bft) 95,65 %
26.05.2017 02:00 12,9 C 21,1 C 78 % 1019,8 hPa 0,0 l/m 3,3 km/h (1 Bft) S-SW 209 0 min 0,026 mm 0,0 UV-I 0 W/m 9,2 C 12,9 C 4,8 km/h (1 Bft) 97,00 %
26.05.2017 02:01 12,9 C 21,1 C 79 % 1019,8 hPa 0,0 l/m 3,2 km/h (1 Bft) S-SW 209 0 min 0,000 mm 0,0 UV-I 0 W/m 9,3 C 12,9 C 3,2 km/h (1 Bft) 97,00 %
26.05.2017 02:02 12,9 C 21,1 C 79 % 1019,8 hPa 0,0 l/m 3,2 km/h (1 Bft) S-SW 209 0 min 0,000 mm 0,0 UV-I 0 W/m 9,3 C 12,9 C 4,8 km/h (1 Bft) 97,00 %
26.05.2017 02:04 12,9 C 21,1 C 79 % 1019,7 hPa 0,0 l/m 0,0 km/h (0 Bft) S-SW 209 0 min 0,000 mm 0,0 UV-I 0 W/m 9,3 C 12,9 C 4,8 km/h (1 Bft) 97,00 %
26.05.2017 02:06 12,9 C 21,1 C 79 % 1019,7 hPa 0,0 l/m 4,8 km/h (1 Bft) S-SW 209 0 min 0,000 mm 0,0 UV-I 0 W/m 9,3 C 12,9 C 4,8 km/h (1 Bft) 97,00 %
26.05.2017 02:08 12,8 C 21,1 C 79 % 1019,7 hPa 0,0 l/m 3,2 km/h (1 Bft) S-SW 209 0 min 0,000 mm 0,0 UV-I 0 W/m 9,2 C 12,8 C 4,8 km/h (1 Bft) 97,00 %
26.05.2017 02:10 12,8 C 21,1 C 79 % 1019,6 hPa 0,0 l/m 1,6 km/h (1 Bft) S-SW 209 0 min 0,000 mm 0,0 UV-I 0 W/m 9,2 C 12,8 C 6,4 km/h (2 Bft) 97,00 %
26.05.2017 02:12 12,8 C 21,1 C 79 % 1019,7 hPa 0,0 l/m 2,4 km/h (1 Bft) S-SW 209 0 min 0,000 mm 0,0 UV-I 0 W/m 9,2 C 12,8 C 6,4 km/h (2 Bft) 97,45 %
26.05.2017 02:14 12,8 C 21,1 C 79 % 1019,6 hPa 0,0 l/m 2,9 km/h (1 Bft) S-SW 209 0 min 0,000 mm 0,0 UV-I 0 W/m 9,2 C 12,8 C 4,8 km/h (1 Bft) 95,74 %
26.05.2017 02:16 12,8 C 21,1 C 79 % 1019,6 hPa 0,0 l/m 3,0 km/h (1 Bft) S-SW 209 0 min 0,000 mm 0,0 UV-I 0 W/m 9,2 C 12,8 C 6,4 km/h (2 Bft) 100,00 %
26.05.2017 02:18 12,8 C 21,1 C 79 % 1019,6 hPa 0,0 l/m 3,0 km/h (1 Bft) S-SW 209 0 min 0,000 mm 0,0 UV-I 0 W/m 9,2 C 12,8 C 6,4 km/h (2 Bft) 97,87 %
26.05.2017 02:21 12,8 C 21,1 C 79 % 1019,6 hPa 0,0 l/m 3,2 km/h (1 Bft) S-SW 209 0 min 0,000 mm 0,0 UV-I 0 W/m 9,2 C 12,8 C 6,4 km/h (2 Bft) 98,73 %
26.05.2017 02:22 12,8 C 21,1 C 79 % 1019,6 hPa 0,0 l/m 2,8 km/h (1 Bft) S-SW 209 0 min 0,000 mm 0,0 UV-I 0 W/m 9,2 C 12,8 C 3,2 km/h (1 Bft) 100,00 %
26.05.2017 02:26 12,7 C 21,1 C 80 % 1019,6 hPa 0,0 l/m 2,5 km/h (1 Bft) S-SW 209 0 min 0,000 mm 0,0 UV-I 0 W/m 9,3 C 12,7 C 4,8 km/h (1 Bft) 100,00 %
26.05.2017 02:28 12,7 C 21,1 C 80 % 1019,6 hPa 0,0 l/m 3,6 km/h (1 Bft) S-SW 209 0 min 0,000 mm 0,0 UV-I 0 W/m 9,3 C 12,7 C 4,8 km/h (1 Bft) 100,00 %
26.05.2017 02:31 12,7 C 21,1 C 80 % 1019,6 hPa 0,0 l/m 3,3 km/h (1 Bft) S-SW 209 0 min 0,000 mm 0,0 UV-I 0 W/m 9,3 C 12,7 C 4,8 km/h (1 Bft) 98,84 %
26.05.2017 02:32 12,7 C 21,1 C 80 % 1019,6 hPa 0,0 l/m 3,6 km/h (1 Bft) S-SW 209 0 min 0,000 mm 0,0 UV-I 0 W/m 9,3 C 12,7 C 4,8 km/h (1 Bft) 100,00 %
26.05.2017 02:36 12,7 C 21,1 C 80 % 1019,6 hPa 0,0 l/m 4,9 km/h (1 Bft) S-SW 209 0 min 0,000 mm 0,0 UV-I 0 W/m 9,3 C 12,7 C 8,0 km/h (2 Bft) 100,00 %
26.05.2017 02:38 12,7 C 21,1 C 80 % 1019,6 hPa 0,0 l/m 3,9 km/h (1 Bft) S-SW 209 0 min 0,000 mm 0,0 UV-I 0 W/m 9,3 C 12,7 C 8,0 km/h (2 Bft) 100,00 %
26.05.2017 02:41 12,7 C 20,6 C 80 % 1019,6 hPa 0,0 l/m 4,6 km/h (1 Bft) S-SW 209 0 min 0,000 mm 0,0 UV-I 0 W/m 9,3 C 12,7 C 8,0 km/h (2 Bft) 98,68 %
26.05.2017 02:42 12,7 C 20,6 C 81 % 1019,6 hPa 0,0 l/m 4,9 km/h (1 Bft) S-SW 209 0 min 0,000 mm 0,0 UV-I 0 W/m 9,5 C 12,7 C 6,4 km/h (2 Bft) 100,00 %
26.05.2017 02:46 12,7 C 20,6 C 81 % 1019,6 hPa 0,0 l/m 4,5 km/h (1 Bft) S-SW 209 0 min 0,000 mm 0,0 UV-I 0 W/m 9,5 C 12,7 C 6,4 km/h (2 Bft) 100,00 %
26.05.2017 02:48 12,7 C 20,6 C 81 % 1019,6 hPa 0,0 l/m 3,3 km/h (1 Bft) S-SW 209 0 min 0,000 mm 0,0 UV-I 0 W/m 9,5 C 12,7 C 4,8 km/h (1 Bft) 100,00 %
26.05.2017 02:51 12,7 C 20,6 C 81 % 1019,5 hPa 0,0 l/m 3,4 km/h (1 Bft) S-SW 209 0 min 0,000 mm 0,0 UV-I 0 W/m 9,5 C 12,7 C 6,4 km/h (2 Bft) 100,00 %
26.05.2017 02:52 12,7 C 20,6 C 81 % 1019,5 hPa 0,0 l/m 4,1 km/h (1 Bft) S-SW 209 0 min 0,000 mm 0,0 UV-I 0 W/m 9,5 C 12,7 C 6,4 km/h (2 Bft) 100,00 %
26.05.2017 02:56 12,7 C 20,6 C 81 % 1019,5 hPa 0,0 l/m 3,5 km/h (1 Bft) S-SW 209 0 min 0,000 mm 0,0 UV-I 0 W/m 9,5 C 12,7 C 6,4 km/h (2 Bft) 100,00 %
26.05.2017 02:58 12,7 C 20,6 C 81 % 1019,5 hPa 0,0 l/m 3,8 km/h (1 Bft) S-SW 209 0 min 0,000 mm 0,0 UV-I 0 W/m 9,5 C 12,7 C 6,4 km/h (2 Bft) 100,00 %
26.05.2017 03:01 12,7 C 20,6 C 81 % 1019,5 hPa 0,0 l/m 3,3 km/h (1 Bft) S-SW 209 0 min 0,025 mm 0,0 UV-I 0 W/m 9,5 C 12,7 C 4,8 km/h (1 Bft) 98,57 %
26.05.2017 03:02 12,7 C 20,6 C 82 % 1019,5 hPa 0,0 l/m 3,0 km/h (1 Bft) S-SW 209 0 min 0,000 mm 0,0 UV-I 0 W/m 9,7 C 12,7 C 4,8 km/h (1 Bft) 100,00 %
26.05.2017 03:06 12,7 C 20,6 C 81 % 1019,5 hPa 0,0 l/m 2,8 km/h (1 Bft) S-SW 209 0 min 0,000 mm 0,0 UV-I 0 W/m 9,5 C 12,7 C 4,8 km/h (1 Bft) 99,03 %
26.05.2017 03:08 12,7 C 20,6 C 82 % 1019,5 hPa 0,0 l/m 3,2 km/h (1 Bft) S-SW 209 0 min 0,000 mm 0,0 UV-I 0 W/m 9,7 C 12,7 C 6,4 km/h (2 Bft) 100,00 %
26.05.2017 03:11 12,7 C 20,6 C 82 % 1019,5 hPa 0,0 l/m 2,6 km/h (1 Bft) S-SW 209 0 min 0,000 mm 0,0 UV-I 0 W/m 9,7 C 12,7 C 6,4 km/h (2 Bft) 100,00 %
26.05.2017 03:12 12,7 C 20,6 C 82 % 1019,5 hPa 0,0 l/m 2,7 km/h (1 Bft) S-SW 209 0 min 0,000 mm 0,0 UV-I 0 W/m 9,7 C 12,7 C 4,8 km/h (1 Bft) 100,00 %
26.05.2017 03:16 12,7 C 20,6 C 81 % 1019,5 hPa 0,0 l/m 3,9 km/h (1 Bft) S-SW 209 0 min 0,000 mm 0,0 UV-I 0 W/m 9,5 C 12,7 C 6,4 km/h (2 Bft) 98,97 %
26.05.2017 03:18 12,7 C 20,6 C 81 % 1019,5 hPa 0,0 l/m 4,7 km/h (1 Bft) S-SW 209 0 min 0,000 mm 0,0 UV-I 0 W/m 9,5 C 12,7 C 6,4 km/h (2 Bft) 96,00 %
26.05.2017 03:21 12,7 C 20,6 C 82 % 1019,5 hPa 0,0 l/m 4,9 km/h (1 Bft) S-SW 209 0 min 0,000 mm 0,0 UV-I 0 W/m 9,7 C 12,7 C 6,4 km/h (2 Bft) 98,39 %
26.05.2017 03:22 12,6 C 20,6 C 82 % 1019,5 hPa 0,0 l/m 4,5 km/h (1 Bft) S-SW 209 0 min 0,000 mm 0,0 UV-I 0 W/m 9,6 C 12,6 C 6,4 km/h (2 Bft) 96,88 %
26.05.2017 03:26 12,5 C 20,6 C 82 % 1019,5 hPa 0,0 l/m 5,8 km/h (2 Bft) S-SW 208 0 min 0,000 mm 0,0 UV-I 0 W/m 9,5 C 12,5 C 9,7 km/h (2 Bft) 96,63 %
26.05.2017 03:28 12,5 C 20,6 C 81 % 1019,5 hPa 0,0 l/m 5,2 km/h (1 Bft) S-SW 208 0 min 0,000 mm 0,0 UV-I 0 W/m 9,3 C 12,5 C 8,0 km/h (2 Bft) 98,11 %
26.05.2017 03:31 12,4 C 20,6 C 82 % 1019,5 hPa 0,0 l/m 4,6 km/h (1 Bft) S-SW 208 0 min 0,000 mm 0,0 UV-I 0 W/m 9,4 C 12,4 C 6,4 km/h (2 Bft) 97,14 %
26.05.2017 03:32 12,4 C 20,6 C 82 % 1019,5 hPa 0,0 l/m 5,7 km/h (1 Bft) S-SW 208 0 min 0,000 mm 0,0 UV-I 0 W/m 9,4 C 12,4 C 9,7 km/h (2 Bft) 100,00 %
26.05.2017 03:36 12,3 C 20,6 C 83 % 1019,5 hPa 0,0 l/m 4,8 km/h (1 Bft) S-SW 208 0 min 0,000 mm 0,0 UV-I 0 W/m 9,5 C 12,3 C 8,0 km/h (2 Bft) 97,00 %
26.05.2017 03:38 12,2 C 20,6 C 83 % 1019,5 hPa 0,0 l/m 4,4 km/h (1 Bft) S-SW 207 0 min 0,000 mm 0,0 UV-I 0 W/m 9,4 C 12,2 C 6,4 km/h (2 Bft) 97,37 %
26.05.2017 03:41 12,1 C 20,6 C 83 % 1019,6 hPa 0,0 l/m 4,1 km/h (1 Bft) S-SW 207 0 min 0,000 mm 0,0 UV-I 0 W/m 9,3 C 12,1 C 6,4 km/h (2 Bft) 98,59 %
26.05.2017 03:42 12,1 C 20,6 C 83 % 1019,6 hPa 0,0 l/m 3,1 km/h (1 Bft) S-SW 207 0 min 0,000 mm 0,0 UV-I 0 W/m 9,3 C 12,1 C 6,4 km/h (2 Bft) 95,65 %
26.05.2017 03:46 12,1 C 20,6 C 84 % 1019,6 hPa 0,0 l/m 4,6 km/h (1 Bft) S-SW 209 0 min 0,000 mm 0,0 UV-I 0 W/m 9,5 C 12,1 C 6,4 km/h (2 Bft) 97,94 %
26.05.2017 03:48 11,9 C 20,6 C 84 % 1019,6 hPa 0,0 l/m 2,7 km/h (1 Bft) S-SW 209 0 min 0,000 mm 0,0 UV-I 0 W/m 9,3 C 11,9 C 4,8 km/h (1 Bft) 97,14 %
26.05.2017 03:51 11,8 C 20,6 C 84 % 1019,6 hPa 0,0 l/m 3,3 km/h (1 Bft) S-SW 209 0 min 0,000 mm 0,0 UV-I 0 W/m 9,2 C 11,8 C 4,8 km/h (1 Bft) 98,84 %
26.05.2017 03:52 11,8 C 20,6 C 84 % 1019,6 hPa 0,0 l/m 3,1 km/h (1 Bft) S-SW 209 0 min 0,000 mm 0,0 UV-I 0 W/m 9,2 C 11,8 C 4,8 km/h (1 Bft) 100,00 %
26.05.2017 03:56 11,7 C 20,6 C 85 % 1019,6 hPa 0,0 l/m 1,8 km/h (1 Bft) S-SW 209 0 min 0,000 mm 0,0 UV-I 0 W/m 9,3 C 11,7 C 4,8 km/h (1 Bft) 100,00 %
26.05.2017 03:58 11,7 C 20,6 C 85 % 1019,6 hPa 0,0 l/m 1,7 km/h (1 Bft) S-SW 209 0 min 0,000 mm 0,0 UV-I 0 W/m 9,3 C 11,7 C 4,8 km/h (1 Bft) 97,44 %
26.05.2017 04:01 11,6 C 20,6 C 85 % 1019,6 hPa 0,0 l/m 3,1 km/h (1 Bft) S-SW 209 0 min 0,000 mm 0,0 UV-I 0 W/m 9,2 C 11,6 C 6,4 km/h (2 Bft) 100,00 %
26.05.2017 04:02 11,6 C 20,6 C 85 % 1019,6 hPa 0,0 l/m 2,8 km/h (1 Bft) S-SW 209 0 min 0,000 mm 0,0 UV-I 0 W/m 9,2 C 11,6 C 4,8 km/h (1 Bft) 95,65 %
26.05.2017 04:06 11,4 C 20,6 C 85 % 1019,6 hPa 0,0 l/m 2,3 km/h (1 Bft) S-SW 209 0 min 0,000 mm 0,0 UV-I 0 W/m 9,0 C 11,4 C 4,8 km/h (1 Bft) 100,00 %
26.05.2017 04:08 11,4 C 20,6 C 85 % 1019,6 hPa 0,0 l/m 1,0 km/h (0 Bft) S-SW 209 0 min 0,000 mm 0,0 UV-I 0 W/m 9,0 C 11,4 C 3,2 km/h (1 Bft) 100,00 %
26.05.2017 04:11 11,4 C 20,6 C 85 % 1019,5 hPa 0,0 l/m 3,0 km/h (1 Bft) S-SW 209 0 min 0,000 mm 0,0 UV-I 0 W/m 9,0 C 11,4 C 4,8 km/h (1 Bft) 100,00 %
26.05.2017 04:12 11,4 C 20,6 C 85 % 1019,5 hPa 0,0 l/m 2,8 km/h (1 Bft) S-SW 209 0 min 0,000 mm 0,0 UV-I 0 W/m 9,0 C 11,4 C 4,8 km/h (1 Bft) 100,00 %
26.05.2017 04:16 11,3 C 20,6 C 85 % 1019,5 hPa 0,0 l/m 3,6 km/h (1 Bft) S-SW 209 0 min 0,000 mm 0,0 UV-I 0 W/m 8,9 C 11,3 C 6,4 km/h (2 Bft) 98,86 %
26.05.2017 04:18 11,3 C 20,6 C 85 % 1019,5 hPa 0,0 l/m 3,7 km/h (1 Bft) S-SW 209 0 min 0,000 mm 0,0 UV-I 0 W/m 8,9 C 11,3 C 6,4 km/h (2 Bft) 100,00 %
26.05.2017 04:21 11,2 C 20,6 C 86 % 1019,4 hPa 0,0 l/m 3,3 km/h (1 Bft) S-SW 209 0 min 0,000 mm 0,0 UV-I 0 W/m 8,9 C 11,2 C 6,4 km/h (2 Bft) 100,00 %
26.05.2017 04:22 11,2 C 20,6 C 86 % 1019,4 hPa 0,0 l/m 4,5 km/h (1 Bft) S-SW 208 0 min 0,000 mm 0,0 UV-I 0 W/m 8,9 C 11,2 C 9,7 km/h (2 Bft) 100,00 %
26.05.2017 04:26 11,1 C 20,6 C 86 % 1019,4 hPa 0,0 l/m 4,3 km/h (1 Bft) S-SW 207 0 min 0,000 mm 0,0 UV-I 0 W/m 8,8 C 11,1 C 8,0 km/h (2 Bft) 96,47 %
26.05.2017 04:28 11,1 C 20,6 C 86 % 1019,4 hPa 0,0 l/m 3,4 km/h (1 Bft) S-SW 207 0 min 0,000 mm 0,0 UV-I 0 W/m 8,8 C 11,1 C 8,0 km/h (2 Bft) 100,00 %
26.05.2017 04:31 11,1 C 20,6 C 86 % 1019,4 hPa 0,0 l/m 3,9 km/h (1 Bft) S-SW 200 0 min 0,000 mm 0,0 UV-I 0 W/m 8,8 C 11,1 C 8,0 km/h (2 Bft) 100,00 %
26.05.2017 04:32 11,1 C 20,6 C 86 % 1019,4 hPa 0,0 l/m 2,7 km/h (1 Bft) S-SW 200 0 min 0,000 mm 0,0 UV-I 0 W/m 8,8 C 11,1 C 4,8 km/h (1 Bft) 100,00 %
26.05.2017 04:36 11,1 C 20,6 C 86 % 1019,4 hPa 0,0 l/m 2,7 km/h (1 Bft) S-SW 200 0 min 0,000 mm 0,0 UV-I 0 W/m 8,8 C 11,1 C 4,8 km/h (1 Bft) 99,06 %
26.05.2017 04:38 11,1 C 20,6 C 86 % 1019,4 hPa 0,0 l/m 2,8 km/h (1 Bft) S-SW 200 0 min 0,000 mm 0,0 UV-I 0 W/m 8,8 C 11,1 C 6,4 km/h (2 Bft) 100,00 %
26.05.2017 04:41 11,0 C 20,6 C 86 % 1019,4 hPa 0,0 l/m 4,3 km/h (1 Bft) S-SW 200 0 min 0,000 mm 0,0 UV-I 0 W/m 8,7 C 11,0 C 6,4 km/h (2 Bft) 96,70 %
26.05.2017 04:42 11,0 C 20,6 C 85 % 1019,4 hPa 0,0 l/m 4,0 km/h (1 Bft) S-SW 200 0 min 0,000 mm 0,0 UV-I 0 W/m 8,6 C 11,0 C 6,4 km/h (2 Bft) 100,00 %
26.05.2017 04:46 11,0 C 20,6 C 85 % 1019,4 hPa 0,0 l/m 3,9 km/h (1 Bft) S-SW 200 0 min 0,000 mm 0,0 UV-I 0 W/m 8,6 C 11,0 C 9,7 km/h (2 Bft) 97,00 %
26.05.2017 04:48 10,9 C 20,6 C 85 % 1019,4 hPa 0,0 l/m 4,4 km/h (1 Bft) S-SW 200 0 min 0,000 mm 0,0 UV-I 0 W/m 8,5 C 10,9 C 6,4 km/h (2 Bft) 94,29 %
26.05.2017 04:51 10,9 C 20,6 C 86 % 1019,4 hPa 0,0 l/m 5,4 km/h (1 Bft) S-SW 200 0 min 0,000 mm 0,0 UV-I 0 W/m 8,7 C 10,9 C 8,0 km/h (2 Bft) 96,34 %
26.05.2017 04:52 10,9 C 20,6 C 86 % 1019,4 hPa 0,0 l/m 6,5 km/h (2 Bft) S-SW 200 0 min 0,000 mm 0,0 UV-I 0 W/m 8,7 C 10,9 C 9,7 km/h (2 Bft) 100,00 %
26.05.2017 04:56 10,8 C 20,6 C 86 % 1019,4 hPa 0,0 l/m 3,3 km/h (1 Bft) S-SW 200 0 min 0,000 mm 0,0 UV-I 2 W/m 8,6 C 10,8 C 6,4 km/h (2 Bft) 97,65 %
26.05.2017 04:58 10,8 C 20,6 C 86 % 1019,4 hPa 0,0 l/m 4,4 km/h (1 Bft) S-SW 200 0 min 0,000 mm 0,0 UV-I 5 W/m 8,6 C 10,8 C 8,0 km/h (2 Bft) 96,23 %
26.05.2017 05:01 10,8 C 20,6 C 86 % 1019,4 hPa 0,0 l/m 4,4 km/h (1 Bft) S-SW 200 0 min 0,000 mm 0,0 UV-I 5 W/m 8,6 C 10,8 C 6,4 km/h (2 Bft) 98,63 %
26.05.2017 05:02 10,8 C 20,6 C 86 % 1019,4 hPa 0,0 l/m 4,3 km/h (1 Bft) S-SW 200 0 min 0,000 mm 0,0 UV-I 5 W/m 8,6 C 10,8 C 6,4 km/h (2 Bft) 93,33 %
26.05.2017 05:06 10,7 C 20,6 C 86 % 1019,5 hPa 0,0 l/m 4,8 km/h (1 Bft) S-SW 200 0 min 0,000 mm 0,0 UV-I 5 W/m 8,5 C 10,7 C 6,4 km/h (2 Bft) 97,09 %
26.05.2017 05:08 10,7 C 20,6 C 86 % 1019,5 hPa 0,0 l/m 2,8 km/h (1 Bft) S-SW 200 0 min 0,000 mm 0,0 UV-I 7 W/m 8,5 C 10,7 C 4,8 km/h (1 Bft) 97,14 %
26.05.2017 05:11 10,7 C 20,6 C 86 % 1019,6 hPa 0,0 l/m 2,9 km/h (1 Bft) S-SW 200 0 min 0,000 mm 0,0 UV-I 7 W/m 8,5 C 10,7 C 6,4 km/h (2 Bft) 96,10 %
26.05.2017 05:12 10,6 C 20,6 C 86 % 1019,6 hPa 0,0 l/m 2,8 km/h (1 Bft) S-SW 200 0 min 0,000 mm 0,0 UV-I 7 W/m 8,4 C 10,6 C 4,8 km/h (1 Bft) 95,65 %
26.05.2017 05:16 10,6 C 20,6 C 86 % 1019,6 hPa 0,0 l/m 2,9 km/h (1 Bft) S-SW 200 0 min 0,000 mm 0,0 UV-I 9 W/m 8,4 C 10,6 C 4,8 km/h (1 Bft) 97,67 %
26.05.2017 05:18 10,5 C 20,6 C 87 % 1019,6 hPa 0,0 l/m 2,1 km/h (1 Bft) S-SW 200 0 min 0,000 mm 0,0 UV-I 9 W/m 8,4 C 10,5 C 4,8 km/h (1 Bft) 94,55 %
26.05.2017 05:21 10,5 C 20,6 C 87 % 1019,6 hPa 0,0 l/m 2,3 km/h (1 Bft) S-SW 200 0 min 0,000 mm 0,0 UV-I 10 W/m 8,4 C 10,5 C 4,8 km/h (1 Bft) 97,30 %
26.05.2017 05:22 10,4 C 20,6 C 87 % 1019,6 hPa 0,0 l/m 2,3 km/h (1 Bft) S-SW 200 0 min 0,000 mm 0,0 UV-I 11 W/m 8,3 C 10,4 C 3,2 km/h (1 Bft) 83,33 %
26.05.2017 05:26 10,4 C 20,6 C 87 % 1019,7 hPa 0,0 l/m 1,9 km/h (1 Bft) S-SW 200 4 min 0,000 mm 0,0 UV-I 12 W/m 8,3 C 10,4 C 4,8 km/h (1 Bft) 96,12 %
26.05.2017 05:28 10,5 C 20,6 C 87 % 1019,7 hPa 0,0 l/m 1,6 km/h (1 Bft) S-SW 200 2 min 0,000 mm 0,0 UV-I 13 W/m 8,4 C 10,5 C 3,2 km/h (1 Bft) 94,74 %
26.05.2017 05:31 10,5 C 20,6 C 87 % 1019,7 hPa 0,0 l/m 2,5 km/h (1 Bft) S-SW 200 0 min 0,000 mm 0,0 UV-I 14 W/m 8,4 C 10,5 C 4,8 km/h (1 Bft) 93,15 %
26.05.2017 05:32 10,5 C 20,6 C 87 % 1019,7 hPa 0,0 l/m 1,7 km/h (1 Bft) S-SW 200 0 min 0,000 mm 0,0 UV-I 15 W/m 8,4 C 10,5 C 3,2 km/h (1 Bft) 100,00 %
26.05.2017 05:36 10,4 C 20,6 C 87 % 1019,8 hPa 0,0 l/m 2,6 km/h (1 Bft) S-SW 200 0 min 0,000 mm 0,0 UV-I 16 W/m 8,3 C 10,4 C 4,8 km/h (1 Bft) 91,00 %
26.05.2017 05:38 10,4 C 20,6 C 87 % 1019,7 hPa 0,0 l/m 2,4 km/h (1 Bft) S-SW 200 0 min 0,000 mm 0,0 UV-I 18 W/m 8,3 C 10,4 C 4,8 km/h (1 Bft) 94,74 %
26.05.2017 05:41 10,4 C 20,6 C 87 % 1019,7 hPa 0,0 l/m 3,1 km/h (1 Bft) S-SW 200 0 min 0,000 mm 0,0 UV-I 19 W/m 8,3 C 10,4 C 4,8 km/h (1 Bft) 97,18 %
26.05.2017 05:42 10,4 C 20,6 C 87 % 1019,7 hPa 0,0 l/m 2,7 km/h (1 Bft) S-SW 200 0 min 0,000 mm 0,0 UV-I 19 W/m 8,3 C 10,4 C 4,8 km/h (1 Bft) 95,65 %
26.05.2017 05:46 10,4 C 20,6 C 87 % 1019,8 hPa 0,0 l/m 2,5 km/h (1 Bft) S-SW 200 0 min 0,000 mm 0,0 UV-I 22 W/m 8,3 C 10,4 C 4,8 km/h (1 Bft) 96,12 %
26.05.2017 05:48 10,4 C 20,6 C 87 % 1019,8 hPa 0,0 l/m 3,6 km/h (1 Bft) S-SW 200 0 min 0,000 mm 0,0 UV-I 25 W/m 8,3 C 10,4 C 4,8 km/h (1 Bft) 92,11 %
26.05.2017 05:51 10,4 C 20,6 C 87 % 1019,7 hPa 0,0 l/m 4,0 km/h (1 Bft) S-SW 200 0 min 0,000 mm 0,0 UV-I 27 W/m 8,3 C 10,4 C 6,4 km/h (2 Bft) 97,30 %
26.05.2017 05:52 10,4 C 20,6 C 87 % 1019,7 hPa 0,0 l/m 3,3 km/h (1 Bft) S-SW 200 0 min 0,000 mm 0,0 UV-I 26 W/m 8,3 C 10,4 C 4,8 km/h (1 Bft) 100,00 %
26.05.2017 05:56 10,4 C 20,6 C 87 % 1019,7 hPa 0,0 l/m 3,7 km/h (1 Bft) S-SW 200 0 min 0,000 mm 0,0 UV-I 27 W/m 8,3 C 10,4 C 6,4 km/h (2 Bft) 94,85 %
26.05.2017 05:58 10,4 C 20,6 C 87 % 1019,7 hPa 0,0 l/m 4,6 km/h (1 Bft) S-SW 200 0 min 0,000 mm 0,0 UV-I 41 W/m 8,3 C 10,4 C 8,0 km/h (2 Bft) 95,24 %
26.05.2017 06:01 10,4 C 20,6 C 87 % 1019,7 hPa 0,0 l/m 2,7 km/h (1 Bft) S-SW 200 3 min 0,026 mm 0,0 UV-I 62 W/m 8,3 C 10,4 C 6,4 km/h (2 Bft) 98,63 %
26.05.2017 06:02 10,4 C 20,6 C 87 % 1019,7 hPa 0,0 l/m 3,9 km/h (1 Bft) S-SW 200 1 min 0,000 mm 0,0 UV-I 64 W/m 8,3 C 10,4 C 6,4 km/h (2 Bft) 100,00 %
26.05.2017 06:06 10,4 C 20,6 C 87 % 1019,8 hPa 0,0 l/m 2,8 km/h (1 Bft) S-SW 200 0 min 0,000 mm 0,0 UV-I 39 W/m 8,3 C 10,4 C 6,4 km/h (2 Bft) 98,90 %
26.05.2017 06:08 10,5 C 20,6 C 87 % 1019,8 hPa 0,0 l/m 2,6 km/h (1 Bft) S-SW 200 0 min 0,000 mm 0,0 UV-I 59 W/m 8,4 C 10,5 C 4,8 km/h (1 Bft) 100,00 %
26.05.2017 06:11 10,5 C 20,6 C 87 % 1019,8 hPa 0,0 l/m 4,7 km/h (1 Bft) S-SW 200 0 min 0,000 mm 0,0 UV-I 41 W/m 8,4 C 10,5 C 8,0 km/h (2 Bft) 97,14 %
26.05.2017 06:12 10,5 C 20,6 C 87 % 1019,8 hPa 0,0 l/m 5,1 km/h (1 Bft) S-SW 201 0 min 0,000 mm 0,0 UV-I 36 W/m 8,4 C 10,5 C 8,0 km/h (2 Bft) 95,83 %
26.05.2017 06:16 10,5 C 20,6 C 87 % 1019,8 hPa 0,0 l/m 3,8 km/h (1 Bft) S-SW 201 0 min 0,000 mm 0,0 UV-I 43 W/m 8,4 C 10,5 C 6,4 km/h (2 Bft) 96,47 %
26.05.2017 06:18 10,5 C 20,6 C 87 % 1019,8 hPa 0,0 l/m 2,6 km/h (1 Bft) S-SW 201 0 min 0,000 mm 0,0 UV-I 58 W/m 8,4 C 10,5 C 4,8 km/h (1 Bft) 100,00 %
26.05.2017 06:21 10,6 C 20,6 C 87 % 1019,8 hPa 0,0 l/m 2,7 km/h (1 Bft) S-SW 201 0 min 0,000 mm 0,0 UV-I 68 W/m 8,5 C 10,6 C 6,4 km/h (2 Bft) 98,84 %
26.05.2017 06:22 10,6 C 20,6 C 87 % 1019,8 hPa 0,0 l/m 2,4 km/h (1 Bft) S-SW 201 0 min 0,000 mm 0,0 UV-I 74 W/m 8,5 C 10,6 C 3,2 km/h (1 Bft) 100,00 %
26.05.2017 06:26 10,7 C 20,6 C 87 % 1019,8 hPa 0,0 l/m 2,2 km/h (1 Bft) S-SW 201 0 min 0,000 mm 0,0 UV-I 84 W/m 8,6 C 10,7 C 4,8 km/h (1 Bft) 95,88 %
26.05.2017 06:28 10,7 C 20,6 C 87 % 1019,8 hPa 0,0 l/m 2,1 km/h (1 Bft) S-SW 201 0 min 0,000 mm 0,0 UV-I 86 W/m 8,6 C 10,7 C 4,8 km/h (1 Bft) 100,00 %
26.05.2017 06:31 10,8 C 20,6 C 87 % 1019,8 hPa 0,0 l/m 3,9 km/h (1 Bft) S-SW 200 0 min 0,000 mm 0,0 UV-I 80 W/m 8,7 C 10,8 C 6,4 km/h (2 Bft) 98,70 %
26.05.2017 06:32 10,9 C 20,6 C 87 % 1019,8 hPa 0,0 l/m 2,9 km/h (1 Bft) S-SW 200 0 min 0,000 mm 0,0 UV-I 89 W/m 8,8 C 10,9 C 4,8 km/h (1 Bft) 100,00 %
26.05.2017 06:36 10,9 C 20,6 C 86 % 1019,8 hPa 0,0 l/m 3,0 km/h (1 Bft) S-SW 200 0 min 0,000 mm 0,0 UV-I 87 W/m 8,7 C 10,9 C 6,4 km/h (2 Bft) 96,00 %
26.05.2017 06:44 11,2 C 20,6 C 86 % 1019,8 hPa 0,0 l/m 1,9 km/h (1 Bft) S-SW 200 8 min 0,000 mm 0,0 UV-I 124 W/m 8,9 C 11,2 C 4,8 km/h (1 Bft) 97,37 %
26.05.2017 06:45 11,2 C 20,6 C 86 % 1019,8 hPa 0,0 l/m 2,9 km/h (1 Bft) S-SW 200 0 min 0,000 mm 0,0 UV-I 70 W/m 8,9 C 11,2 C 3,2 km/h (1 Bft) 91,67 %
26.05.2017 06:46 11,2 C 20,6 C 86 % 1019,8 hPa 0,0 l/m 3,1 km/h (1 Bft) S-SW 200 0 min 0,000 mm 0,0 UV-I 70 W/m 8,9 C 11,2 C 4,8 km/h (1 Bft) 96,30 %
26.05.2017 06:48 11,2 C 20,6 C 86 % 1019,8 hPa 0,0 l/m 2,1 km/h (1 Bft) S-SW 200 0 min 0,000 mm 0,0 UV-I 69 W/m 8,9 C 11,2 C 6,4 km/h (2 Bft) 97,73 %
26.05.2017 06:50 11,3 C 20,6 C 86 % 1019,7 hPa 0,0 l/m 4,4 km/h (1 Bft) S-SW 200 0 min 0,000 mm 0,0 UV-I 70 W/m 9,0 C 11,3 C 6,4 km/h (2 Bft) 92,86 %
26.05.2017 06:52 11,3 C 20,6 C 86 % 1019,8 hPa 0,0 l/m 2,3 km/h (1 Bft) S-SW 200 0 min 0,000 mm 0,0 UV-I 72 W/m 9,0 C 11,3 C 4,8 km/h (1 Bft) 95,45 %
26.05.2017 06:54 11,3 C 20,6 C 86 % 1019,8 hPa 0,0 l/m 2,8 km/h (1 Bft) S-SW 200 0 min 0,000 mm 0,0 UV-I 104 W/m 9,0 C 11,3 C 4,8 km/h (1 Bft) 96,00 %
26.05.2017 06:56 11,3 C 20,6 C 86 % 1019,8 hPa 0,0 l/m 2,7 km/h (1 Bft) S-SW 200 2 min 0,000 mm 0,0 UV-I 202 W/m 9,0 C 11,3 C 4,8 km/h (1 Bft) 100,00 %
26.05.2017 06:58 11,5 C 20,6 C 86 % 1019,8 hPa 0,0 l/m 2,8 km/h (1 Bft) S-SW 200 2 min 0,000 mm 0,0 UV-I 225 W/m 9,2 C 11,5 C 4,8 km/h (1 Bft) 98,00 %
26.05.2017 07:00 11,7 C 20,6 C 86 % 1019,8 hPa 0,0 l/m 2,9 km/h (1 Bft) S-SW 200 2 min 0,050 mm 0,0 UV-I 232 W/m 9,4 C 11,7 C 6,4 km/h (2 Bft) 95,12 %
26.05.2017 07:02 11,9 C 20,6 C 85 % 1019,8 hPa 0,0 l/m 3,3 km/h (1 Bft) S-SW 200 2 min 0,000 mm 0,0 UV-I 239 W/m 9,5 C 11,9 C 6,4 km/h (2 Bft) 96,00 %
26.05.2017 07:04 12,1 C 20,6 C 84 % 1019,8 hPa 0,0 l/m 3,8 km/h (1 Bft) S-SW 200 2 min 0,000 mm 0,0 UV-I 243 W/m 9,5 C 12,1 C 6,4 km/h (2 Bft) 100,00 %
26.05.2017 07:06 12,3 C 20,6 C 84 % 1019,8 hPa 0,0 l/m 4,7 km/h (1 Bft) S-SW 200 2 min 0,000 mm 0,0 UV-I 244 W/m 9,7 C 12,3 C 6,4 km/h (2 Bft) 100,00 %
26.05.2017 07:08 12,4 C 20,6 C 83 % 1019,8 hPa 0,0 l/m 2,5 km/h (1 Bft) S-SW 200 2 min 0,000 mm 0,0 UV-I 241 W/m 9,6 C 12,4 C 4,8 km/h (1 Bft) 93,62 %
26.05.2017 07:10 12,5 C 20,6 C 83 % 1019,8 hPa 0,0 l/m 2,3 km/h (1 Bft) S-SW 200 2 min 0,000 mm 0,0 UV-I 242 W/m 9,7 C 12,5 C 4,8 km/h (1 Bft) 98,00 %
26.05.2017 07:12 12,6 C 20,6 C 83 % 1019,8 hPa 0,0 l/m 3,4 km/h (1 Bft) S-SW 200 2 min 0,000 mm 0,0 UV-I 244 W/m 9,8 C 12,6 C 4,8 km/h (1 Bft) 100,00 %
26.05.2017 07:14 12,6 C 20,6 C 83 % 1019,8 hPa 0,0 l/m 3,4 km/h (1 Bft) S-SW 200 0 min 0,000 mm 0,0 UV-I 104 W/m 9,8 C 12,6 C 6,4 km/h (2 Bft) 97,56 %
26.05.2017 07:16 12,6 C 20,6 C 83 % 1019,8 hPa 0,0 l/m 3,3 km/h (1 Bft) S-SW 200 0 min 0,000 mm 0,0 UV-I 70 W/m 9,8 C 12,6 C 6,4 km/h (2 Bft) 95,74 %
26.05.2017 07:18 12,6 C 20,6 C 83 % 1019,8 hPa 0,0 l/m 0,9 km/h (0 Bft) S-SW 200 2 min 0,000 mm 0,3 UV-I 214 W/m 9,8 C 12,6 C 3,2 km/h (1 Bft) 98,11 %
26.05.2017 07:20 12,7 C 20,6 C 83 % 1019,8 hPa 0,0 l/m 1,7 km/h (1 Bft) S-SW 200 2 min 0,000 mm 0,5 UV-I 275 W/m 9,9 C 12,7 C 3,2 km/h (1 Bft) 95,74 %
26.05.2017 07:22 12,8 C 20,6 C 83 % 1019,9 hPa 0,0 l/m 3,1 km/h (1 Bft) S-SW 200 2 min 0,000 mm 0,5 UV-I 277 W/m 10,0 C 12,8 C 6,4 km/h (2 Bft) 95,83 %
26.05.2017 07:24 13,0 C 20,6 C 82 % 1019,8 hPa 0,0 l/m 5,5 km/h (1 Bft) S-SW 202 2 min 0,000 mm 0,5 UV-I 285 W/m 10,0 C 13,0 C 9,7 km/h (2 Bft) 95,74 %
26.05.2017 07:26 13,2 C 20,6 C 81 % 1019,8 hPa 0,0 l/m 5,6 km/h (1 Bft) SW 215 2 min 0,000 mm 0,5 UV-I 292 W/m 10,0 C 13,2 C 9,7 km/h (2 Bft) 92,11 %
26.05.2017 07:28 13,3 C 20,6 C 81 % 1019,8 hPa 0,0 l/m 7,4 km/h (2 Bft) S-SW 210 2 min 0,000 mm 0,6 UV-I 294 W/m 10,1 C 12,7 C 11,3 km/h (2 Bft) 94,34 %
26.05.2017 07:30 13,4 C 20,6 C 80 % 1019,8 hPa 0,0 l/m 4,0 km/h (1 Bft) SW 218 2 min 0,000 mm 0,6 UV-I 295 W/m 10,0 C 13,4 C 8,0 km/h (2 Bft) 98,00 %
26.05.2017 07:32 13,5 C 20,6 C 80 % 1019,8 hPa 0,0 l/m 7,4 km/h (2 Bft) SW 221 2 min 0,000 mm 0,6 UV-I 301 W/m 10,1 C 12,9 C 12,9 km/h (3 Bft) 95,45 %
26.05.2017 07:34 13,6 C 20,6 C 79 % 1019,8 hPa 0,0 l/m 8,1 km/h (2 Bft) SW 216 2 min 0,000 mm 0,6 UV-I 301 W/m 10,0 C 12,6 C 11,3 km/h (2 Bft) 97,37 %
26.05.2017 07:36 13,6 C 20,6 C 79 % 1019,8 hPa 0,0 l/m 6,3 km/h (2 Bft) S-SW 211 2 min 0,000 mm 0,6 UV-I 312 W/m 10,0 C 13,6 C 9,7 km/h (2 Bft) 96,00 %
26.05.2017 07:38 13,7 C 20,6 C 78 % 1019,8 hPa 0,0 l/m 5,5 km/h (1 Bft) S-SW 205 2 min 0,000 mm 0,6 UV-I 318 W/m 9,9 C 13,7 C 9,7 km/h (2 Bft) 94,34 %
26.05.2017 07:40 13,8 C 20,6 C 79 % 1019,8 hPa 0,0 l/m 4,7 km/h (1 Bft) W-SW 255 2 min 0,000 mm 0,7 UV-I 322 W/m 10,2 C 13,8 C 8,0 km/h (2 Bft) 90,24 %
26.05.2017 07:43 13,8 C 20,6 C 77 % 1019,9 hPa 0,0 l/m 9,9 km/h (2 Bft) SW 236 3 min 0,000 mm 0,7 UV-I 325 W/m 9,8 C 11,8 C 17,7 km/h (3 Bft) 97,30 %
26.05.2017 07:44 13,8 C 20,6 C 77 % 1019,9 hPa 0,0 l/m 9,0 km/h (2 Bft) SW 233 1 min 0,000 mm 0,7 UV-I 334 W/m 9,8 C 12,3 C 14,5 km/h (3 Bft) 96,15 %
26.05.2017 07:46 13,9 C 20,6 C 77 % 1019,9 hPa 0,0 l/m 6,1 km/h (2 Bft) SW 217 2 min 0,000 mm 0,7 UV-I 338 W/m 9,9 C 13,9 C 12,9 km/h (3 Bft) 95,12 %
26.05.2017 07:48 13,9 C 20,6 C 77 % 1019,9 hPa 0,0 l/m 4,3 km/h (1 Bft) SW 232 2 min 0,000 mm 0,8 UV-I 342 W/m 9,9 C 13,9 C 8,0 km/h (2 Bft) 98,21 %
26.05.2017 07:50 14,0 C 20,6 C 77 % 1019,9 hPa 0,0 l/m 5,5 km/h (1 Bft) SW 214 2 min 0,000 mm 0,8 UV-I 347 W/m 10,0 C 14,0 C 9,7 km/h (2 Bft) 95,74 %
26.05.2017 07:52 14,1 C 20,6 C 77 % 1019,9 hPa 0,0 l/m 5,3 km/h (1 Bft) W-SW 241 2 min 0,000 mm 0,8 UV-I 356 W/m 10,1 C 14,1 C 9,7 km/h (2 Bft) 88,57 %
26.05.2017 07:54 14,2 C 20,6 C 76 % 1019,9 hPa 0,0 l/m 8,8 km/h (2 Bft) W-SW 250 2 min 0,000 mm 0,8 UV-I 364 W/m 10,0 C 12,8 C 14,5 km/h (3 Bft) 98,11 %
26.05.2017 07:56 14,3 C 20,6 C 76 % 1020,0 hPa 0,0 l/m 5,1 km/h (1 Bft) W-SW 238 2 min 0,000 mm 0,9 UV-I 370 W/m 10,1 C 14,3 C 8,0 km/h (2 Bft) 94,00 %
26.05.2017 07:58 14,4 C 20,6 C 76 % 1020,0 hPa 0,0 l/m 4,7 km/h (1 Bft) W-SW 255 2 min 0,000 mm 0,9 UV-I 377 W/m 10,2 C 14,4 C 6,4 km/h (2 Bft) 92,59 %
26.05.2017 08:00 14,6 C 20,6 C 75 % 1020,0 hPa 0,0 l/m 4,5 km/h (1 Bft) W-SW 240 2 min 0,153 mm 0,9 UV-I 382 W/m 10,2 C 14,6 C 6,4 km/h (2 Bft) 93,18 %
26.05.2017 08:02 14,6 C 20,6 C 75 % 1020,0 hPa 0,0 l/m 5,7 km/h (1 Bft) SW 219 2 min 0,000 mm 0,9 UV-I 388 W/m 10,2 C 14,6 C 8,0 km/h (2 Bft) 94,12 %
26.05.2017 08:04 14,7 C 20,6 C 75 % 1020,0 hPa 0,0 l/m 2,3 km/h (1 Bft) SW 219 2 min 0,000 mm 1,0 UV-I 393 W/m 10,3 C 14,7 C 4,8 km/h (1 Bft) 97,87 %
26.05.2017 08:06 14,7 C 20,6 C 75 % 1020,0 hPa 0,0 l/m 5,1 km/h (1 Bft) W-SW 239 2 min 0,000 mm 1,0 UV-I 394 W/m 10,3 C 14,7 C 8,0 km/h (2 Bft) 93,62 %
26.05.2017 08:08 14,8 C 20,6 C 75 % 1020,0 hPa 0,0 l/m 4,8 km/h (1 Bft) W 281 2 min 0,000 mm 1,0 UV-I 405 W/m 10,4 C 14,8 C 8,0 km/h (2 Bft) 92,00 %
26.05.2017 08:10 14,8 C 20,6 C 76 % 1020,0 hPa 0,0 l/m 3,6 km/h (1 Bft) W-SW 254 2 min 0,000 mm 1,1 UV-I 411 W/m 10,6 C 14,8 C 6,4 km/h (2 Bft) 94,74 %
26.05.2017 08:12 14,9 C 20,6 C 75 % 1020,0 hPa 0,0 l/m 3,6 km/h (1 Bft) W 260 2 min 0,000 mm 1,1 UV-I 416 W/m 10,5 C 14,9 C 6,4 km/h (2 Bft) 98,00 %
26.05.2017 08:14 14,9 C 20,6 C 74 % 1020,0 hPa 0,0 l/m 4,2 km/h (1 Bft) SW 227 2 min 0,000 mm 1,1 UV-I 420 W/m 10,3 C 14,9 C 6,4 km/h (2 Bft) 97,87 %
26.05.2017 08:16 15,1 C 20,6 C 74 % 1020,0 hPa 0,0 l/m 4,7 km/h (1 Bft) W-NW 288 2 min 0,000 mm 1,2 UV-I 429 W/m 10,5 C 15,1 C 9,7 km/h (2 Bft) 92,11 %
26.05.2017 08:18 14,9 C 20,6 C 74 % 1020,1 hPa 0,0 l/m 4,5 km/h (1 Bft) W 279 2 min 0,000 mm 1,2 UV-I 437 W/m 10,3 C 14,9 C 9,7 km/h (2 Bft) 98,21 %
26.05.2017 08:20 15,0 C 20,6 C 73 % 1020,1 hPa 0,0 l/m 3,5 km/h (1 Bft) W 270 2 min 0,000 mm 1,2 UV-I 443 W/m 10,2 C 15,0 C 9,7 km/h (2 Bft) 96,00 %
26.05.2017 08:22 15,1 C 20,6 C 72 % 1020,1 hPa 0,0 l/m 5,3 km/h (1 Bft) W-SW 254 2 min 0,000 mm 1,3 UV-I 447 W/m 10,1 C 15,1 C 11,3 km/h (2 Bft) 91,49 %
26.05.2017 08:24 15,2 C 20,6 C 73 % 1020,2 hPa 0,0 l/m 4,8 km/h (1 Bft) W 263 2 min 0,000 mm 1,3 UV-I 452 W/m 10,4 C 15,2 C 6,4 km/h (2 Bft) 89,47 %
26.05.2017 08:26 15,2 C 20,6 C 72 % 1020,2 hPa 0,0 l/m 2,9 km/h (1 Bft) W 263 2 min 0,000 mm 1,3 UV-I 457 W/m 10,2 C 15,2 C 4,8 km/h (1 Bft) 96,43 %
26.05.2017 08:28 15,3 C 20,6 C 72 % 1020,2 hPa 0,0 l/m 2,7 km/h (1 Bft) W 263 2 min 0,000 mm 1,4 UV-I 464 W/m 10,3 C 15,3 C 4,8 km/h (1 Bft) 95,12 %
26.05.2017 08:30 15,4 C 20,6 C 73 % 1020,3 hPa 0,0 l/m 4,3 km/h (1 Bft) W-SW 253 2 min 0,000 mm 1,4 UV-I 467 W/m 10,6 C 15,4 C 6,4 km/h (2 Bft) 93,18 %
26.05.2017 08:32 15,4 C 20,6 C 72 % 1020,3 hPa 0,0 l/m 4,2 km/h (1 Bft) W 271 2 min 0,000 mm 1,4 UV-I 470 W/m 10,4 C 15,4 C 9,7 km/h (2 Bft) 91,49 %
26.05.2017 08:34 15,4 C 20,6 C 71 % 1020,3 hPa 0,0 l/m 3,7 km/h (1 Bft) W-NW 298 2 min 0,000 mm 1,5 UV-I 478 W/m 10,2 C 15,4 C 6,4 km/h (2 Bft) 92,45 %
26.05.2017 08:36 15,5 C 20,6 C 69 % 1020,2 hPa 0,0 l/m 3,4 km/h (1 Bft) W 277 2 min 0,000 mm 1,5 UV-I 486 W/m 9,8 C 15,5 C 6,4 km/h (2 Bft) 98,00 %
26.05.2017 08:38 15,4 C 20,6 C 69 % 1020,3 hPa 0,0 l/m 5,8 km/h (2 Bft) W 263 2 min 0,000 mm 1,5 UV-I 492 W/m 9,7 C 15,4 C 12,9 km/h (3 Bft) 91,49 %
26.05.2017 08:40 15,6 C 20,6 C 69 % 1020,3 hPa 0,0 l/m 4,4 km/h (1 Bft) W-NW 285 2 min 0,000 mm 1,6 UV-I 497 W/m 9,9 C 15,6 C 9,7 km/h (2 Bft) 92,31 %
26.05.2017 08:42 15,6 C 20,6 C 69 % 1020,3 hPa 0,0 l/m 2,2 km/h (1 Bft) W 277 2 min 0,000 mm 1,6 UV-I 504 W/m 9,9 C 15,6 C 4,8 km/h (1 Bft) 98,00 %
26.05.2017 08:44 15,6 C 20,6 C 68 % 1020,4 hPa 0,0 l/m 4,8 km/h (1 Bft) W 280 2 min 0,000 mm 1,7 UV-I 510 W/m 9,7 C 15,6 C 9,7 km/h (2 Bft) 100,00 %
26.05.2017 08:46 15,7 C 20,6 C 69 % 1020,4 hPa 0,0 l/m 5,5 km/h (1 Bft) S-SW 197 2 min 0,000 mm 1,7 UV-I 515 W/m 10,0 C 15,7 C 8,0 km/h (2 Bft) 96,23 %
26.05.2017 08:48 15,8 C 20,6 C 68 % 1020,4 hPa 0,0 l/m 5,6 km/h (1 Bft) W-SW 242 2 min 0,000 mm 1,7 UV-I 519 W/m 9,9 C 15,8 C 11,3 km/h (2 Bft) 98,11 %
26.05.2017 08:50 15,8 C 20,6 C 67 % 1020,4 hPa 0,0 l/m 7,0 km/h (2 Bft) W-SW 250 2 min 0,000 mm 1,8 UV-I 524 W/m 9,7 C 15,5 C 14,5 km/h (3 Bft) 97,37 %
26.05.2017 08:52 15,8 C 20,6 C 69 % 1020,4 hPa 0,0 l/m 3,1 km/h (1 Bft) W 265 2 min 0,000 mm 1,8 UV-I 530 W/m 10,1 C 15,8 C 4,8 km/h (1 Bft) 96,00 %
26.05.2017 08:54 15,9 C 20,6 C 69 % 1020,3 hPa 0,0 l/m 2,7 km/h (1 Bft) W-NW 292 2 min 0,000 mm 1,8 UV-I 533 W/m 10,2 C 15,9 C 4,8 km/h (1 Bft) 97,87 %
26.05.2017 08:56 16,2 C 20,6 C 69 % 1020,4 hPa 0,0 l/m 4,0 km/h (1 Bft) W-SW 253 2 min 0,000 mm 1,9 UV-I 535 W/m 10,5 C 16,2 C 4,8 km/h (1 Bft) 98,00 %
26.05.2017 08:58 16,2 C 20,6 C 67 % 1020,4 hPa 0,0 l/m 4,9 km/h (1 Bft) W-NW 288 2 min 0,000 mm 1,9 UV-I 540 W/m 10,1 C 16,2 C 11,3 km/h (2 Bft) 100,00 %
26.05.2017 09:00 16,2 C 20,6 C 66 % 1020,4 hPa 0,0 l/m 3,2 km/h (1 Bft) W-NW 282 2 min 0,254 mm 2,0 UV-I 549 W/m 9,8 C 16,2 C 8,0 km/h (2 Bft) 98,11 %
26.05.2017 09:02 16,3 C 20,6 C 67 % 1020,4 hPa 0,0 l/m 4,5 km/h (1 Bft) W-SW 250 2 min 0,000 mm 2,0 UV-I 555 W/m 10,2 C 16,3 C 8,0 km/h (2 Bft) 94,00 %
26.05.2017 09:04 16,4 C 20,6 C 66 % 1020,4 hPa 0,0 l/m 3,9 km/h (1 Bft) W-SW 248 2 min 0,000 mm 2,1 UV-I 562 W/m 10,0 C 16,4 C 6,4 km/h (2 Bft) 96,00 %
26.05.2017 09:06 16,4 C 20,6 C 65 % 1020,4 hPa 0,0 l/m 4,4 km/h (1 Bft) W 277 2 min 0,000 mm 2,1 UV-I 566 W/m 9,8 C 16,4 C 9,7 km/h (2 Bft) 94,74 %
26.05.2017 09:08 16,4 C 20,6 C 66 % 1020,4 hPa 0,0 l/m 3,0 km/h (1 Bft) W-NW 302 2 min 0,000 mm 2,2 UV-I 573 W/m 10,0 C 16,4 C 6,4 km/h (2 Bft) 98,00 %
26.05.2017 09:10 16,4 C 20,6 C 66 % 1020,4 hPa 0,0 l/m 3,8 km/h (1 Bft) SW 228 2 min 0,000 mm 2,2 UV-I 578 W/m 10,0 C 16,4 C 8,0 km/h (2 Bft) 92,00 %
26.05.2017 09:12 16,4 C 20,6 C 66 % 1020,3 hPa 0,0 l/m 3,5 km/h (1 Bft) SW 233 2 min 0,000 mm 2,2 UV-I 583 W/m 10,0 C 16,4 C 6,4 km/h (2 Bft) 97,56 %
26.05.2017 09:14 16,4 C 20,6 C 67 % 1020,3 hPa 0,0 l/m 3,2 km/h (1 Bft) W 279 2 min 0,000 mm 2,3 UV-I 586 W/m 10,3 C 16,4 C 4,8 km/h (1 Bft) 96,00 %
26.05.2017 09:16 16,5 C 20,6 C 67 % 1020,3 hPa 0,0 l/m 3,0 km/h (1 Bft) W 281 2 min 0,000 mm 2,3 UV-I 593 W/m 10,4 C 16,5 C 9,7 km/h (2 Bft) 94,00 %
26.05.2017 09:18 16,7 C 20,6 C 67 % 1020,3 hPa 0,0 l/m 2,0 km/h (1 Bft) W 265 2 min 0,000 mm 2,4 UV-I 598 W/m 10,5 C 16,7 C 4,8 km/h (1 Bft) 97,22 %
26.05.2017 09:20 16,8 C 20,6 C 65 % 1020,4 hPa 0,0 l/m 2,2 km/h (1 Bft) NW 309 2 min 0,000 mm 2,4 UV-I 607 W/m 10,2 C 16,8 C 4,8 km/h (1 Bft) 96,23 %
26.05.2017 09:22 16,9 C 20,6 C 68 % 1020,3 hPa 0,0 l/m 1,6 km/h (1 Bft) N-NW 347 2 min 0,000 mm 2,5 UV-I 615 W/m 11,0 C 16,9 C 4,8 km/h (1 Bft) 94,00 %
26.05.2017 09:24 17,0 C 20,6 C 68 % 1020,3 hPa 0,0 l/m 1,7 km/h (1 Bft) NW 320 2 min 0,000 mm 2,5 UV-I 621 W/m 11,0 C 17,0 C 3,2 km/h (1 Bft) 97,37 %
26.05.2017 09:26 17,1 C 20,6 C 70 % 1020,3 hPa 0,0 l/m 2,5 km/h (1 Bft) NW 313 2 min 0,000 mm 2,5 UV-I 618 W/m 11,6 C 17,1 C 6,4 km/h (2 Bft) 96,43 %
26.05.2017 09:28 17,3 C 20,6 C 68 % 1020,2 hPa 0,0 l/m 2,0 km/h (1 Bft) NW 309 2 min 0,000 mm 2,6 UV-I 619 W/m 11,3 C 17,3 C 3,2 km/h (1 Bft) 97,87 %
26.05.2017 09:30 17,2 C 20,6 C 65 % 1020,2 hPa 0,0 l/m 3,1 km/h (1 Bft) W-NW 288 2 min 0,000 mm 2,6 UV-I 624 W/m 10,6 C 17,2 C 4,8 km/h (1 Bft) 96,00 %
26.05.2017 09:32 17,1 C 20,6 C 66 % 1020,2 hPa 0,0 l/m 3,6 km/h (1 Bft) W-NW 293 2 min 0,000 mm 2,7 UV-I 630 W/m 10,7 C 17,1 C 6,4 km/h (2 Bft) 85,71 %
26.05.2017 09:34 17,0 C 20,6 C 68 % 1020,3 hPa 0,0 l/m 3,5 km/h (1 Bft) W 265 2 min 0,000 mm 2,8 UV-I 642 W/m 11,0 C 17,0 C 6,4 km/h (2 Bft) 96,23 %
26.05.2017 09:36 17,1 C 20,6 C 64 % 1020,3 hPa 0,0 l/m 5,0 km/h (1 Bft) W-NW 284 2 min 0,000 mm 2,8 UV-I 649 W/m 10,2 C 17,1 C 11,3 km/h (2 Bft) 95,74 %
26.05.2017 09:38 17,2 C 20,6 C 67 % 1020,3 hPa 0,0 l/m 4,4 km/h (1 Bft) W 273 2 min 0,000 mm 2,8 UV-I 650 W/m 11,0 C 17,2 C 8,0 km/h (2 Bft) 97,73 %
26.05.2017 09:40 17,3 C 20,6 C 64 % 1020,2 hPa 0,0 l/m 7,2 km/h (2 Bft) SW 235 2 min 0,000 mm 2,8 UV-I 649 W/m 10,4 C 16,9 C 11,3 km/h (2 Bft) 90,57 %
26.05.2017 09:42 17,3 C 20,6 C 64 % 1020,3 hPa 0,0 l/m 5,5 km/h (1 Bft) W 279 2 min 0,000 mm 2,9 UV-I 658 W/m 10,4 C 17,3 C 11,3 km/h (2 Bft) 98,00 %
26.05.2017 09:44 17,2 C 20,6 C 66 % 1020,2 hPa 0,0 l/m 0,7 km/h (0 Bft) N-NW 329 2 min 0,000 mm 3,0 UV-I 666 W/m 10,8 C 17,2 C 3,2 km/h (1 Bft) 100,00 %
26.05.2017 09:46 17,2 C 20,6 C 65 % 1020,2 hPa 0,0 l/m 1,5 km/h (1 Bft) N-NW 338 2 min 0,000 mm 3,0 UV-I 670 W/m 10,6 C 17,2 C 3,2 km/h (1 Bft) 97,87 %
26.05.2017 09:48 17,3 C 20,6 C 64 % 1020,2 hPa 0,0 l/m 1,9 km/h (1 Bft) W 264 2 min 0,000 mm 3,1 UV-I 673 W/m 10,4 C 17,3 C 6,4 km/h (2 Bft) 96,43 %
26.05.2017 09:50 17,4 C 20,6 C 63 % 1020,2 hPa 0,0 l/m 4,1 km/h (1 Bft) W-SW 250 2 min 0,000 mm 3,1 UV-I 675 W/m 10,3 C 17,4 C 8,0 km/h (2 Bft) 100,00 %
26.05.2017 09:52 17,4 C 20,6 C 65 % 1020,1 hPa 0,0 l/m 4,9 km/h (1 Bft) S-SW 207 2 min 0,000 mm 3,1 UV-I 678 W/m 10,8 C 17,4 C 8,0 km/h (2 Bft) 98,39 %
26.05.2017 09:54 17,6 C 20,6 C 65 % 1020,2 hPa 0,0 l/m 4,7 km/h (1 Bft) SW 229 2 min 0,000 mm 3,1 UV-I 682 W/m 10,9 C 17,6 C 11,3 km/h (2 Bft) 100,00 %
26.05.2017 09:56 17,7 C 20,6 C 64 % 1020,1 hPa 0,0 l/m 5,9 km/h (2 Bft) NW 304 2 min 0,000 mm 3,2 UV-I 687 W/m 10,8 C 17,7 C 8,0 km/h (2 Bft) 100,00 %
26.05.2017 09:58 17,6 C 20,6 C 63 % 1020,1 hPa 0,0 l/m 3,2 km/h (1 Bft) W 259 2 min 0,000 mm 3,2 UV-I 692 W/m 10,5 C 17,6 C 6,4 km/h (2 Bft) 97,44 %
26.05.2017 10:00 17,7 C 20,6 C 63 % 1020,1 hPa 0,0 l/m 8,5 km/h (2 Bft) W-SW 246 2 min 0,355 mm 3,3 UV-I 700 W/m 10,6 C 16,7 C 14,5 km/h (3 Bft) 96,30 %
26.05.2017 10:02 17,8 C 20,6 C 63 % 1020,1 hPa 0,0 l/m 4,7 km/h (1 Bft) W-NW 292 2 min 0,000 mm 3,3 UV-I 704 W/m 10,7 C 17,8 C 8,0 km/h (2 Bft) 100,00 %
26.05.2017 10:04 17,8 C 20,6 C 63 % 1020,1 hPa 0,0 l/m 3,3 km/h (1 Bft) S-SW 193 2 min 0,000 mm 3,4 UV-I 707 W/m 10,7 C 17,8 C 6,4 km/h (2 Bft) 97,37 %
26.05.2017 10:06 17,8 C 20,6 C 62 % 1020,0 hPa 0,0 l/m 2,8 km/h (1 Bft) NW 306 2 min 0,000 mm 3,4 UV-I 713 W/m 10,4 C 17,8 C 6,4 km/h (2 Bft) 98,21 %
26.05.2017 10:08 17,9 C 20,6 C 64 % 1020,1 hPa 0,0 l/m 2,3 km/h (1 Bft) N-NW 344 2 min 0,000 mm 3,5 UV-I 715 W/m 11,0 C 17,9 C 6,4 km/h (2 Bft) 100,00 %
26.05.2017 10:10 17,9 C 21,1 C 62 % 1020,1 hPa 0,0 l/m 2,0 km/h (1 Bft) N-NW 329 2 min 0,000 mm 3,5 UV-I 719 W/m 10,5 C 17,9 C 4,8 km/h (1 Bft) 100,00 %
26.05.2017 10:12 18,0 C 21,1 C 63 % 1020,1 hPa 0,0 l/m 2,6 km/h (1 Bft) W 269 2 min 0,000 mm 3,6 UV-I 726 W/m 10,8 C 18,0 C 4,8 km/h (1 Bft) 98,04 %
26.05.2017 10:14 18,0 C 20,6 C 64 % 1020,1 hPa 0,0 l/m 4,6 km/h (1 Bft) W-NW 292 2 min 0,000 mm 3,7 UV-I 734 W/m 11,1 C 18,0 C 8,0 km/h (2 Bft) 100,00 %
26.05.2017 10:16 18,0 C 20,6 C 60 % 1020,1 hPa 0,0 l/m 2,4 km/h (1 Bft) N-NW 336 2 min 0,000 mm 3,7 UV-I 738 W/m 10,1 C 18,0 C 8,0 km/h (2 Bft) 98,11 %
26.05.2017 10:18 18,0 C 21,1 C 61 % 1020,1 hPa 0,0 l/m 2,3 km/h (1 Bft) W-SW 248 2 min 0,000 mm 3,8 UV-I 740 W/m 10,4 C 18,0 C 8,0 km/h (2 Bft) 100,00 %
26.05.2017 10:20 17,9 C 21,1 C 60 % 1020,1 hPa 0,0 l/m 3,1 km/h (1 Bft) W 274 2 min 0,000 mm 3,8 UV-I 741 W/m 10,0 C 17,9 C 8,0 km/h (2 Bft) 97,87 %
26.05.2017 10:22 17,9 C 20,6 C 61 % 1020,1 hPa 0,0 l/m 3,3 km/h (1 Bft) W-NW 283 2 min 0,000 mm 3,9 UV-I 745 W/m 10,3 C 17,9 C 6,4 km/h (2 Bft) 100,00 %
26.05.2017 10:24 18,0 C 20,6 C 60 % 1020,0 hPa 0,0 l/m 5,6 km/h (1 Bft) S-SW 203 2 min 0,000 mm 3,9 UV-I 751 W/m 10,1 C 18,0 C 11,3 km/h (2 Bft) 98,00 %
26.05.2017 10:26 18,1 C 20,6 C 57 % 1020,0 hPa 0,0 l/m 6,3 km/h (2 Bft) W-NW 287 2 min 0,000 mm 4,0 UV-I 759 W/m 9,4 C 18,1 C 12,9 km/h (3 Bft) 100,00 %
26.05.2017 10:28 18,1 C 20,6 C 60 % 1020,0 hPa 0,0 l/m 2,0 km/h (1 Bft) W-SW 241 2 min 0,000 mm 4,0 UV-I 763 W/m 10,2 C 18,1 C 6,4 km/h (2 Bft) 98,00 %
26.05.2017 10:30 18,3 C 20,6 C 58 % 1020,0 hPa 0,0 l/m 6,1 km/h (2 Bft) W 259 2 min 0,000 mm 4,0 UV-I 766 W/m 9,9 C 18,3 C 11,3 km/h (2 Bft) 97,56 %
26.05.2017 10:32 18,4 C 20,6 C 55 % 1020,0 hPa 0,0 l/m 5,7 km/h (1 Bft) SW 219 2 min 0,000 mm 4,1 UV-I 771 W/m 9,2 C 18,4 C 8,0 km/h (2 Bft) 100,00 %
26.05.2017 10:34 18,5 C 20,6 C 58 % 1020,0 hPa 0,0 l/m 5,7 km/h (1 Bft) W-SW 257 2 min 0,000 mm 4,1 UV-I 776 W/m 10,1 C 18,5 C 12,9 km/h (3 Bft) 100,00 %
26.05.2017 10:36 18,4 C 20,6 C 55 % 1020,0 hPa 0,0 l/m 5,0 km/h (1 Bft) W-NW 294 2 min 0,000 mm 4,2 UV-I 783 W/m 9,2 C 18,4 C 11,3 km/h (2 Bft) 100,00 %
26.05.2017 10:38 18,3 C 20,6 C 57 % 1020,0 hPa 0,0 l/m 5,3 km/h (1 Bft) W-SW 246 2 min 0,000 mm 4,2 UV-I 787 W/m 9,6 C 18,3 C 8,0 km/h (2 Bft) 97,73 %
26.05.2017 10:40 18,4 C 21,1 C 59 % 1020,0 hPa 0,0 l/m 3,7 km/h (1 Bft) S-SW 202 2 min 0,000 mm 4,2 UV-I 779 W/m 10,2 C 18,4 C 8,0 km/h (2 Bft) 97,06 %
26.05.2017 10:42 18,7 C 20,6 C 58 % 1019,9 hPa 0,0 l/m 1,5 km/h (1 Bft) S-SO 163 2 min 0,000 mm 4,3 UV-I 786 W/m 10,3 C 18,7 C 9,7 km/h (2 Bft) 100,00 %
26.05.2017 10:44 18,8 C 21,1 C 56 % 1020,0 hPa 0,0 l/m 6,3 km/h (2 Bft) W-SW 246 2 min 0,000 mm 4,4 UV-I 793 W/m 9,8 C 18,8 C 11,3 km/h (2 Bft) 100,00 %
26.05.2017 10:46 18,7 C 20,6 C 56 % 1019,9 hPa 0,0 l/m 4,6 km/h (1 Bft) W-NW 300 2 min 0,000 mm 4,4 UV-I 796 W/m 9,7 C 18,7 C 11,3 km/h (2 Bft) 98,21 %
26.05.2017 10:48 18,7 C 21,1 C 55 % 1019,9 hPa 0,0 l/m 2,8 km/h (1 Bft) W-SW 250 2 min 0,000 mm 4,5 UV-I 813 W/m 9,5 C 18,7 C 6,4 km/h (2 Bft) 100,00 %
26.05.2017 10:50 18,9 C 21,1 C 57 % 1019,9 hPa 0,0 l/m 2,2 km/h (1 Bft) NW 314 2 min 0,000 mm 4,4 UV-I 836 W/m 10,2 C 18,9 C 4,8 km/h (1 Bft) 100,00 %
26.05.2017 10:52 18,9 C 21,1 C 57 % 1019,9 hPa 0,0 l/m 2,1 km/h (1 Bft) SW 233 2 min 0,000 mm 4,4 UV-I 844 W/m 10,2 C 18,9 C 4,8 km/h (1 Bft) 97,37 %
26.05.2017 10:54 19,1 C 21,1 C 58 % 1020,0 hPa 0,0 l/m 4,8 km/h (1 Bft) SW 227 2 min 0,000 mm 3,9 UV-I 814 W/m 10,6 C 19,1 C 8,0 km/h (2 Bft) 100,00 %
26.05.2017 10:56 19,1 C 21,1 C 57 % 1019,9 hPa 0,0 l/m 5,7 km/h (1 Bft) S-SW 196 2 min 0,000 mm 4,6 UV-I 827 W/m 10,4 C 19,1 C 9,7 km/h (2 Bft) 97,14 %
26.05.2017 10:58 19,1 C 21,1 C 56 % 1020,0 hPa 0,0 l/m 6,5 km/h (2 Bft) SW 236 2 min 0,000 mm 4,7 UV-I 839 W/m 10,1 C 19,1 C 12,9 km/h (3 Bft) 98,00 %
26.05.2017 11:00 19,2 C 21,1 C 55 % 1020,0 hPa 0,0 l/m 10,6 km/h (2 Bft) W-SW 240 2 min 0,458 mm 4,7 UV-I 833 W/m 9,9 C 17,6 C 16,1 km/h (3 Bft) 100,00 %
26.05.2017 11:02 19,2 C 21,1 C 56 % 1020,0 hPa 0,0 l/m 5,4 km/h (1 Bft) W-SW 252 2 min 0,000 mm 4,8 UV-I 832 W/m 10,2 C 19,2 C 9,7 km/h (2 Bft) 97,37 %
26.05.2017 11:04 19,2 C 21,1 C 55 % 1020,0 hPa 0,0 l/m 4,0 km/h (1 Bft) NW 320 2 min 0,000 mm 4,8 UV-I 839 W/m 9,9 C 19,2 C 11,3 km/h (2 Bft) 98,21 %
26.05.2017 11:06 19,2 C 21,1 C 59 % 1019,9 hPa 0,0 l/m 3,0 km/h (1 Bft) NW 315 2 min 0,000 mm 4,9 UV-I 845 W/m 11,0 C 19,2 C 6,4 km/h (2 Bft) 92,00 %
26.05.2017 11:08 19,2 C 21,1 C 54 % 1019,9 hPa 0,0 l/m 8,2 km/h (2 Bft) W-NW 291 2 min 0,000 mm 4,9 UV-I 857 W/m 9,7 C 18,4 C 11,3 km/h (2 Bft) 95,12 %
26.05.2017 11:10 19,0 C 21,1 C 55 % 1020,0 hPa 0,0 l/m 2,4 km/h (1 Bft) NW 314 2 min 0,000 mm 4,9 UV-I 863 W/m 9,8 C 19,0 C 9,7 km/h (2 Bft) 96,23 %
26.05.2017 11:12 19,2 C 21,1 C 58 % 1019,9 hPa 0,0 l/m 3,7 km/h (1 Bft) W-NW 282 2 min 0,000 mm 5,0 UV-I 867 W/m 10,7 C 19,2 C 11,3 km/h (2 Bft) 95,74 %
26.05.2017 11:14 19,3 C 21,1 C 54 % 1020,0 hPa 0,0 l/m 8,0 km/h (2 Bft) W-SW 254 2 min 0,000 mm 5,0 UV-I 858 W/m 9,8 C 18,6 C 14,5 km/h (3 Bft) 92,86 %
26.05.2017 11:16 19,3 C 21,1 C 54 % 1020,0 hPa 0,0 l/m 11,1 km/h (2 Bft) W-SW 255 2 min 0,000 mm 5,0 UV-I 863 W/m 9,8 C 17,5 C 17,7 km/h (3 Bft) 94,00 %
26.05.2017 11:18 19,3 C 21,1 C 55 % 1019,9 hPa 0,0 l/m 8,4 km/h (2 Bft) W-NW 295 2 min 0,000 mm 5,1 UV-I 875 W/m 10,0 C 18,5 C 16,1 km/h (3 Bft) 95,45 %
26.05.2017 11:20 19,3 C 21,1 C 52 % 1019,9 hPa 0,0 l/m 5,2 km/h (1 Bft) W 265 2 min 0,000 mm 5,1 UV-I 883 W/m 9,2 C 19,3 C 12,9 km/h (3 Bft) 93,62 %
26.05.2017 11:22 19,3 C 21,1 C 54 % 1019,9 hPa 0,0 l/m 8,8 km/h (2 Bft) W-SW 250 2 min 0,000 mm 5,0 UV-I 890 W/m 9,8 C 18,3 C 17,7 km/h (3 Bft) 87,80 %
26.05.2017 11:24 19,3 C 21,1 C 54 % 1019,9 hPa 0,0 l/m 8,1 km/h (2 Bft) SW 221 2 min 0,000 mm 5,2 UV-I 903 W/m 9,8 C 18,6 C 17,7 km/h (3 Bft) 94,34 %
26.05.2017 11:26 19,3 C 21,1 C 53 % 1019,9 hPa 0,0 l/m 6,8 km/h (2 Bft) W-SW 254 2 min 0,000 mm 5,4 UV-I 940 W/m 9,5 C 19,1 C 11,3 km/h (2 Bft) 96,55 %
26.05.2017 11:28 19,3 C 21,1 C 53 % 1019,8 hPa 0,0 l/m 5,0 km/h (1 Bft) W 278 2 min 0,000 mm 5,5 UV-I 991 W/m 9,5 C 19,3 C 14,5 km/h (3 Bft) 92,45 %
26.05.2017 11:30 19,6 C 21,1 C 54 % 1019,9 hPa 0,0 l/m 12,9 km/h (3 Bft) W-SW 257 2 min 0,000 mm 5,0 UV-I 986 W/m 10,0 C 17,3 C 17,7 km/h (3 Bft) 92,45 %
26.05.2017 11:32 19,5 C 21,1 C 56 % 1019,9 hPa 0,0 l/m 3,8 km/h (1 Bft) W 259 2 min 0,000 mm 5,4 UV-I 946 W/m 10,5 C 19,5 C 9,7 km/h (2 Bft) 95,74 %
26.05.2017 11:34 19,6 C 21,1 C 53 % 1019,8 hPa 0,0 l/m 5,8 km/h (2 Bft) SW 218 2 min 0,000 mm 5,4 UV-I 943 W/m 9,8 C 19,6 C 12,9 km/h (3 Bft) 96,23 %
26.05.2017 11:36 19,6 C 21,1 C 53 % 1019,8 hPa 0,0 l/m 2,5 km/h (1 Bft) W-NW 287 2 min 0,000 mm 5,6 UV-I 952 W/m 9,8 C 19,6 C 4,8 km/h (1 Bft) 97,73 %
26.05.2017 11:38 19,8 C 21,1 C 54 % 1019,8 hPa 0,0 l/m 3,9 km/h (1 Bft) N-NW 330 2 min 0,000 mm 5,6 UV-I 955 W/m 10,2 C 19,8 C 11,3 km/h (2 Bft) 94,34 %
26.05.2017 11:40 19,8 C 21,1 C 56 % 1019,8 hPa 0,0 l/m 1,1 km/h (1 Bft) W 271 2 min 0,000 mm 5,6 UV-I 958 W/m 10,8 C 19,8 C 4,8 km/h (1 Bft) 97,56 %
26.05.2017 11:42 19,8 C 21,1 C 54 % 1019,8 hPa 0,0 l/m 6,7 km/h (2 Bft) W 276 2 min 0,000 mm 5,7 UV-I 985 W/m 10,2 C 19,7 C 12,9 km/h (3 Bft) 96,23 %
26.05.2017 11:44 19,9 C 21,1 C 52 % 1019,7 hPa 0,0 l/m 6,0 km/h (2 Bft) W-SW 241 2 min 0,000 mm 5,6 UV-I 1013 W/m 9,7 C 19,9 C 9,7 km/h (2 Bft) 93,62 %
26.05.2017 11:46 20,2 C 21,1 C 54 % 1019,7 hPa 0,0 l/m 4,3 km/h (1 Bft) W-SW 249 2 min 0,000 mm 5,5 UV-I 1030 W/m 10,6 C 20,2 C 9,7 km/h (2 Bft) 97,37 %
26.05.2017 11:48 20,1 C 21,1 C 52 % 1019,7 hPa 0,0 l/m 3,4 km/h (1 Bft) N 360 2 min 0,000 mm 3,1 UV-I 834 W/m 9,9 C 20,1 C 8,0 km/h (2 Bft) 96,23 %
26.05.2017 11:50 19,7 C 21,1 C 54 % 1019,8 hPa 0,0 l/m 3,8 km/h (1 Bft) W-SW 242 0 min 0,000 mm 2,8 UV-I 197 W/m 10,1 C 19,7 C 9,7 km/h (2 Bft) 98,00 %
26.05.2017 11:52 19,3 C 21,1 C 53 % 1019,8 hPa 0,0 l/m 8,7 km/h (2 Bft) SW 236 0 min 0,000 mm 2,8 UV-I 184 W/m 9,5 C 18,3 C 14,5 km/h (3 Bft) 95,45 %
26.05.2017 11:54 19,0 C 21,1 C 52 % 1019,8 hPa 0,0 l/m 11,1 km/h (2 Bft) SW 234 0 min 0,000 mm 2,8 UV-I 188 W/m 8,9 C 17,2 C 22,5 km/h (4 Bft) 97,62 %
26.05.2017 11:56 19,0 C 21,1 C 52 % 1019,8 hPa 0,0 l/m 8,9 km/h (2 Bft) W-SW 244 2 min 0,000 mm 5,1 UV-I 560 W/m 8,9 C 17,9 C 17,7 km/h (3 Bft) 96,00 %
26.05.2017 11:58 19,1 C 21,1 C 54 % 1019,8 hPa 0,0 l/m 6,2 km/h (2 Bft) W-NW 299 2 min 0,000 mm 5,7 UV-I 953 W/m 9,6 C 19,1 C 12,9 km/h (3 Bft) 95,74 %
26.05.2017 12:00 19,3 C 21,1 C 53 % 1019,7 hPa 0,0 l/m 4,2 km/h (1 Bft) W 277 2 min 0,482 mm 5,7 UV-I 934 W/m 9,5 C 19,3 C 11,3 km/h (2 Bft) 97,37 %
26.05.2017 12:02 19,4 C 21,1 C 51 % 1019,7 hPa 0,0 l/m 7,4 km/h (2 Bft) N 355 2 min 0,000 mm 5,8 UV-I 934 W/m 9,0 C 19,0 C 12,9 km/h (3 Bft) 92,68 %
26.05.2017 12:05 19,6 C 21,1 C 55 % 1019,7 hPa 0,0 l/m 6,4 km/h (2 Bft) N 360 3 min 0,000 mm 5,8 UV-I 932 W/m 10,3 C 19,6 C 16,1 km/h (3 Bft) 94,74 %
26.05.2017 12:10 19,7 C 21,1 C 49 % 1019,6 hPa 0,0 l/m 3,1 km/h (1 Bft) S-SW 202 5 min 0,000 mm 5,9 UV-I 934 W/m 8,7 C 19,7 C 8,0 km/h (2 Bft) 95,08 %
26.05.2017 12:12 19,7 C 21,1 C 52 % 1019,6 hPa 0,0 l/m 6,7 km/h (2 Bft) S-SW 202 2 min 0,000 mm 5,9 UV-I 943 W/m 9,6 C 19,6 C 11,3 km/h (2 Bft) 94,64 %
26.05.2017 12:14 20,1 C 21,1 C 51 % 1019,6 hPa 0,0 l/m 9,7 km/h (2 Bft) SW 221 2 min 0,000 mm 5,9 UV-I 965 W/m 9,6 C 18,8 C 17,7 km/h (3 Bft) 97,96 %
26.05.2017 12:16 20,3 C 21,1 C 51 % 1019,6 hPa 0,0 l/m 5,6 km/h (1 Bft) SW 233 2 min 0,000 mm 6,1 UV-I 1015 W/m 9,8 C 20,3 C 11,3 km/h (2 Bft) 100,00 %
26.05.2017 12:18 20,5 C 21,1 C 48 % 1019,6 hPa 0,0 l/m 5,6 km/h (1 Bft) W-SW 238 2 min 0,000 mm 5,7 UV-I 1025 W/m 9,1 C 20,5 C 11,3 km/h (2 Bft) 100,00 %
26.05.2017 12:20 20,6 C 21,1 C 49 % 1019,6 hPa 0,0 l/m 6,9 km/h (2 Bft) W-NW 300 2 min 0,000 mm 3,5 UV-I 604 W/m 9,5 C 20,4 C 14,5 km/h (3 Bft) 92,59 %
26.05.2017 12:22 20,3 C 21,1 C 51 % 1019,6 hPa 0,0 l/m 6,5 km/h (2 Bft) SW 232 0 min 0,000 mm 4,6 UV-I 230 W/m 9,8 C 20,3 C 11,3 km/h (2 Bft) 94,74 %
26.05.2017 12:24 20,3 C 21,1 C 50 % 1019,6 hPa 0,0 l/m 5,3 km/h (1 Bft) W-NW 297 2 min 0,000 mm 6,0 UV-I 803 W/m 9,5 C 20,3 C 14,5 km/h (3 Bft) 100,00 %
26.05.2017 12:26 20,2 C 21,1 C 53 % 1019,6 hPa 0,0 l/m 5,8 km/h (2 Bft) W-SW 258 2 min 0,000 mm 6,0 UV-I 957 W/m 10,3 C 20,2 C 12,9 km/h (3 Bft) 98,11 %
26.05.2017 12:28 20,3 C 21,1 C 48 % 1019,5 hPa 0,0 l/m 11,1 km/h (2 Bft) W-SW 254 2 min 0,000 mm 6,0 UV-I 943 W/m 8,9 C 18,6 C 19,3 km/h (3 Bft) 92,68 %
26.05.2017 12:30 20,3 C 21,1 C 49 % 1019,6 hPa 0,0 l/m 11,9 km/h (2 Bft) W 259 2 min 0,000 mm 6,0 UV-I 943 W/m 9,2 C 18,4 C 16,1 km/h (3 Bft) 97,73 %
26.05.2017 12:32 20,3 C 21,1 C 50 % 1019,5 hPa 0,0 l/m 5,1 km/h (1 Bft) W 263 2 min 0,000 mm 6,0 UV-I 930 W/m 9,5 C 20,3 C 9,7 km/h (2 Bft) 100,00 %
26.05.2017 12:34 20,4 C 21,1 C 49 % 1019,5 hPa 0,0 l/m 6,3 km/h (2 Bft) S-SW 195 2 min 0,000 mm 6,1 UV-I 932 W/m 9,3 C 20,4 C 11,3 km/h (2 Bft) 97,73 %
26.05.2017 12:36 20,7 C 21,1 C 49 % 1019,5 hPa 0,0 l/m 8,9 km/h (2 Bft) SW 231 2 min 0,000 mm 6,1 UV-I 931 W/m 9,6 C 19,8 C 14,5 km/h (3 Bft) 96,23 %
26.05.2017 12:38 20,7 C 21,1 C 50 % 1019,5 hPa 0,0 l/m 10,4 km/h (2 Bft) SW 219 2 min 0,000 mm 6,0 UV-I 931 W/m 9,9 C 19,3 C 20,9 km/h (4 Bft) 97,37 %
26.05.2017 12:40 20,7 C 21,1 C 49 % 1019,5 hPa 0,0 l/m 5,7 km/h (1 Bft) SW 225 2 min 0,000 mm 4,9 UV-I 946 W/m 9,6 C 20,7 C 14,5 km/h (3 Bft) 100,00 %
26.05.2017 12:42 20,6 C 21,7 C 48 % 1019,5 hPa 0,0 l/m 7,6 km/h (2 Bft) SW 235 2 min 0,000 mm 6,0 UV-I 941 W/m 9,2 C 20,1 C 12,9 km/h (3 Bft) 100,00 %
26.05.2017 12:44 20,5 C 21,7 C 50 % 1019,4 hPa 0,0 l/m 5,4 km/h (1 Bft) W 281 2 min 0,000 mm 5,9 UV-I 932 W/m 9,7 C 20,5 C 14,5 km/h (3 Bft) 100,00 %
26.05.2017 12:46 20,5 C 21,7 C 49 % 1019,5 hPa 0,0 l/m 6,5 km/h (2 Bft) SW 220 2 min 0,000 mm 6,0 UV-I 938 W/m 9,4 C 20,5 C 11,3 km/h (2 Bft) 97,62 %
26.05.2017 12:48 20,8 C 21,7 C 50 % 1019,4 hPa 0,0 l/m 4,6 km/h (1 Bft) W-SW 246 2 min 0,000 mm 6,1 UV-I 942 W/m 10,0 C 20,8 C 11,3 km/h (2 Bft) 98,25 %
26.05.2017 12:50 21,1 C 21,7 C 50 % 1019,4 hPa 0,0 l/m 8,1 km/h (2 Bft) NW 309 2 min 0,000 mm 6,0 UV-I 968 W/m 10,3 C 20,5 C 12,9 km/h (3 Bft) 96,00 %
26.05.2017 12:52 21,1 C 21,7 C 49 % 1019,4 hPa 0,0 l/m 7,7 km/h (2 Bft) S-SW 199 2 min 0,000 mm 3,9 UV-I 979 W/m 10,0 C 20,6 C 20,9 km/h (4 Bft) 100,00 %
26.05.2017 12:54 20,8 C 21,7 C 46 % 1019,4 hPa 0,0 l/m 11,9 km/h (2 Bft) W-SW 249 2 min 0,000 mm 6,1 UV-I 980 W/m 8,8 C 19,0 C 20,9 km/h (4 Bft) 98,00 %
26.05.2017 12:56 20,8 C 21,7 C 49 % 1019,3 hPa 0,0 l/m 13,3 km/h (3 Bft) W-SW 255 2 min 0,000 mm 6,1 UV-I 955 W/m 9,7 C 18,6 C 20,9 km/h (4 Bft) 100,00 %
26.05.2017 12:58 20,9 C 21,7 C 47 % 1019,4 hPa 0,0 l/m 11,5 km/h (2 Bft) W 270 2 min 0,000 mm 6,1 UV-I 942 W/m 9,2 C 19,2 C 17,7 km/h (3 Bft) 98,11 %
26.05.2017 13:00 20,9 C 21,7 C 48 % 1019,3 hPa 0,0 l/m 9,5 km/h (2 Bft) W-SW 238 2 min 0,559 mm 6,0 UV-I 932 W/m 9,5 C 19,8 C 17,7 km/h (3 Bft) 100,00 %
26.05.2017 13:02 21,0 C 21,7 C 47 % 1019,4 hPa 0,0 l/m 5,9 km/h (2 Bft) W-NW 303 2 min 0,000 mm 6,0 UV-I 930 W/m 9,3 C 21,0 C 11,3 km/h (2 Bft) 100,00 %
26.05.2017 13:04 21,0 C 21,7 C 43 % 1019,4 hPa 0,0 l/m 6,1 km/h (2 Bft) NW 308 2 min 0,000 mm 6,1 UV-I 940 W/m 7,9 C 21,0 C 16,1 km/h (3 Bft) 97,56 %
26.05.2017 13:06 20,9 C 21,7 C 46 % 1019,3 hPa 0,0 l/m 9,2 km/h (2 Bft) W-NW 290 2 min 0,000 mm 6,1 UV-I 940 W/m 8,8 C 19,9 C 14,5 km/h (3 Bft) 97,87 %
26.05.2017 13:08 21,0 C 21,7 C 46 % 1019,3 hPa 0,0 l/m 12,0 km/h (2 Bft) W-SW 254 2 min 0,000 mm 6,2 UV-I 941 W/m 8,9 C 19,2 C 20,9 km/h (4 Bft) 95,74 %
26.05.2017 13:10 21,1 C 21,7 C 45 % 1019,3 hPa 0,0 l/m 17,2 km/h (3 Bft) W-SW 250 2 min 0,000 mm 6,1 UV-I 930 W/m 8,7 C 18,1 C 22,5 km/h (4 Bft) 97,73 %
26.05.2017 13:12 21,0 C 21,7 C 44 % 1019,3 hPa 0,0 l/m 13,5 km/h (3 Bft) W-SW 248 2 min 0,000 mm 6,1 UV-I 929 W/m 8,3 C 18,8 C 22,5 km/h (4 Bft) 98,11 %
26.05.2017 13:14 21,0 C 21,7 C 44 % 1019,3 hPa 0,0 l/m 9,4 km/h (2 Bft) S-SW 213 2 min 0,000 mm 6,1 UV-I 934 W/m 8,3 C 19,9 C 19,3 km/h (3 Bft) 95,12 %
26.05.2017 13:16 21,1 C 21,7 C 45 % 1019,3 hPa 0,0 l/m 7,4 km/h (2 Bft) W 270 2 min 0,000 mm 6,0 UV-I 923 W/m 8,7 C 20,7 C 14,5 km/h (3 Bft) 98,11 %
26.05.2017 13:18 21,2 C 21,7 C 45 % 1019,3 hPa 0,0 l/m 5,0 km/h (1 Bft) W 281 2 min 0,000 mm 6,0 UV-I 924 W/m 8,8 C 21,2 C 12,9 km/h (3 Bft) 94,74 %
26.05.2017 13:20 21,3 C 21,7 C 48 % 1019,3 hPa 0,0 l/m 6,6 km/h (2 Bft) W 269 2 min 0,000 mm 6,0 UV-I 923 W/m 9,8 C 21,2 C 11,3 km/h (2 Bft) 94,34 %
26.05.2017 13:22 21,4 C 21,7 C 47 % 1019,3 hPa 0,0 l/m 8,0 km/h (2 Bft) W-NW 293 2 min 0,000 mm 6,0 UV-I 917 W/m 9,6 C 20,8 C 14,5 km/h (3 Bft) 95,12 %
26.05.2017 13:24 21,2 C 21,7 C 51 % 1019,3 hPa 0,0 l/m 5,1 km/h (1 Bft) W-NW 284 2 min 0,000 mm 6,0 UV-I 916 W/m 10,7 C 21,2 C 9,7 km/h (2 Bft) 92,86 %
26.05.2017 13:26 21,0 C 21,7 C 49 % 1019,2 hPa 0,0 l/m 4,7 km/h (1 Bft) N 9 2 min 0,000 mm 6,0 UV-I 912 W/m 9,9 C 21,0 C 9,7 km/h (2 Bft) 94,74 %
26.05.2017 13:28 20,9 C 21,7 C 49 % 1019,2 hPa 0,0 l/m 5,8 km/h (2 Bft) N-NW 346 2 min 0,000 mm 5,9 UV-I 909 W/m 9,8 C 20,9 C 14,5 km/h (3 Bft) 98,21 %
26.05.2017 13:30 20,9 C 21,7 C 49 % 1019,2 hPa 0,0 l/m 7,8 km/h (2 Bft) W-NW 296 2 min 0,000 mm 5,9 UV-I 905 W/m 9,8 C 20,4 C 14,5 km/h (3 Bft) 97,87 %
26.05.2017 13:32 20,9 C 21,7 C 46 % 1019,2 hPa 0,0 l/m 4,1 km/h (1 Bft) NW 318 2 min 0,000 mm 6,0 UV-I 912 W/m 8,8 C 20,9 C 6,4 km/h (2 Bft) 97,62 %
26.05.2017 13:34 21,1 C 21,7 C 46 % 1019,2 hPa 0,0 l/m 3,1 km/h (1 Bft) W-NW 293 2 min 0,000 mm 6,0 UV-I 912 W/m 9,0 C 21,1 C 6,4 km/h (2 Bft) 100,00 %
26.05.2017 13:36 21,0 C 21,7 C 47 % 1019,1 hPa 0,0 l/m 3,4 km/h (1 Bft) W-SW 253 2 min 0,000 mm 6,0 UV-I 910 W/m 9,3 C 21,0 C 9,7 km/h (2 Bft) 100,00 %
26.05.2017 13:38 21,2 C 21,7 C 45 % 1019,1 hPa 0,0 l/m 8,4 km/h (2 Bft) W-SW 241 2 min 0,000 mm 5,9 UV-I 907 W/m 8,8 C 20,5 C 14,5 km/h (3 Bft) 98,11 %
26.05.2017 13:40 21,3 C 21,7 C 43 % 1019,1 hPa 0,0 l/m 6,7 km/h (2 Bft) SW 221 2 min 0,000 mm 5,9 UV-I 910 W/m 8,2 C 21,2 C 11,3 km/h (2 Bft) 100,00 %
26.05.2017 13:42 21,6 C 21,7 C 44 % 1019,1 hPa 0,0 l/m 16,7 km/h (3 Bft) W-SW 257 2 min 0,000 mm 5,9 UV-I 907 W/m 8,8 C 18,9 C 27,4 km/h (4 Bft) 97,56 %
26.05.2017 13:44 21,4 C 21,7 C 43 % 1019,1 hPa 0,0 l/m 11,1 km/h (2 Bft) NW 320 2 min 0,000 mm 5,8 UV-I 900 W/m 8,3 C 19,9 C 16,1 km/h (3 Bft) 96,23 %
26.05.2017 13:46 21,2 C 21,7 C 44 % 1019,1 hPa 0,0 l/m 5,7 km/h (1 Bft) S-SW 211 2 min 0,000 mm 5,8 UV-I 894 W/m 8,5 C 21,2 C 12,9 km/h (3 Bft) 100,00 %
26.05.2017 13:48 21,2 C 21,7 C 48 % 1019,0 hPa 0,0 l/m 5,6 km/h (1 Bft) W-NW 292 2 min 0,000 mm 5,8 UV-I 895 W/m 9,7 C 21,2 C 16,1 km/h (3 Bft) 98,11 %
26.05.2017 13:50 21,3 C 21,7 C 51 % 1019,0 hPa 0,0 l/m 3,5 km/h (1 Bft) W-SW 257 2 min 0,000 mm 5,7 UV-I 886 W/m 10,7 C 21,3 C 9,7 km/h (2 Bft) 100,00 %
26.05.2017 13:52 21,3 C 21,7 C 51 % 1019,0 hPa 0,0 l/m 4,2 km/h (1 Bft) W-NW 295 2 min 0,000 mm 5,7 UV-I 884 W/m 10,7 C 21,3 C 9,7 km/h (2 Bft) 100,00 %
26.05.2017 13:54 21,3 C 21,7 C 48 % 1019,0 hPa 0,0 l/m 4,2 km/h (1 Bft) W 267 2 min 0,000 mm 5,7 UV-I 891 W/m 9,8 C 21,3 C 8,0 km/h (2 Bft) 98,00 %
26.05.2017 13:56 21,3 C 21,7 C 49 % 1018,9 hPa 0,0 l/m 7,9 km/h (2 Bft) N-NW 340 2 min 0,000 mm 4,8 UV-I 920 W/m 10,1 C 20,8 C 16,1 km/h (3 Bft) 97,37 %
26.05.2017 13:58 20,9 C 21,7 C 48 % 1018,9 hPa 0,0 l/m 7,0 km/h (2 Bft) N 11 2 min 0,000 mm 5,0 UV-I 921 W/m 9,5 C 20,7 C 17,7 km/h (3 Bft) 100,00 %
26.05.2017 14:00 20,8 C 21,7 C 47 % 1018,9 hPa 0,0 l/m 4,9 km/h (1 Bft) NO 47 2 min 0,584 mm 5,7 UV-I 910 W/m 9,1 C 20,8 C 12,9 km/h (3 Bft) 100,00 %
26.05.2017 14:02 21,0 C 22,2 C 48 % 1018,8 hPa 0,0 l/m 5,2 km/h (1 Bft) SW 225 2 min 0,000 mm 5,7 UV-I 902 W/m 9,6 C 21,0 C 12,9 km/h (3 Bft) 100,00 %
26.05.2017 14:04 21,3 C 22,2 C 44 % 1018,9 hPa 0,0 l/m 14,0 km/h (3 Bft) SW 216 2 min 0,000 mm 5,7 UV-I 898 W/m 8,5 C 19,0 C 17,7 km/h (3 Bft) 98,11 %
26.05.2017 14:06 21,5 C 22,2 C 44 % 1018,9 hPa 0,0 l/m 7,5 km/h (2 Bft) W 273 2 min 0,000 mm 5,6 UV-I 884 W/m 8,7 C 21,1 C 12,9 km/h (3 Bft) 97,22 %
26.05.2017 14:08 21,6 C 22,2 C 45 % 1018,9 hPa 0,0 l/m 7,4 km/h (2 Bft) SW 229 2 min 0,000 mm 5,5 UV-I 868 W/m 9,2 C 21,2 C 14,5 km/h (3 Bft) 96,23 %
26.05.2017 14:10 21,4 C 22,2 C 45 % 1018,9 hPa 0,0 l/m 5,9 km/h (2 Bft) W-SW 255 2 min 0,000 mm 5,5 UV-I 866 W/m 9,0 C 21,4 C 11,3 km/h (2 Bft) 100,00 %
26.05.2017 14:12 21,3 C 22,2 C 45 % 1018,8 hPa 0,0 l/m 7,1 km/h (2 Bft) S-SW 198 2 min 0,000 mm 5,5 UV-I 867 W/m 8,9 C 21,0 C 11,3 km/h (2 Bft) 92,00 %
26.05.2017 14:14 21,4 C 22,2 C 47 % 1018,8 hPa 0,0 l/m 6,9 km/h (2 Bft) W-SW 244 2 min 0,000 mm 5,5 UV-I 867 W/m 9,6 C 21,2 C 14,5 km/h (3 Bft) 100,00 %
26.05.2017 14:16 21,4 C 22,2 C 47 % 1018,8 hPa 0,0 l/m 8,5 km/h (2 Bft) W-SW 243 2 min 0,000 mm 5,4 UV-I 865 W/m 9,6 C 20,7 C 16,1 km/h (3 Bft) 100,00 %
26.05.2017 14:18 21,6 C 22,2 C 45 % 1018,8 hPa 0,0 l/m 5,6 km/h (1 Bft) SW 236 2 min 0,000 mm 5,4 UV-I 867 W/m 9,2 C 21,6 C 12,9 km/h (3 Bft) 95,74 %
26.05.2017 14:20 21,7 C 22,2 C 47 % 1018,8 hPa 0,0 l/m 8,7 km/h (2 Bft) W-SW 243 2 min 0,000 mm 5,4 UV-I 873 W/m 9,9 C 20,9 C 16,1 km/h (3 Bft) 100,00 %
26.05.2017 14:22 21,8 C 22,2 C 48 % 1018,8 hPa 0,0 l/m 5,3 km/h (1 Bft) W-NW 295 2 min 0,000 mm 5,3 UV-I 871 W/m 10,3 C 21,8 C 11,3 km/h (2 Bft) 100,00 %
26.05.2017 14:24 21,8 C 22,2 C 44 % 1018,8 hPa 0,0 l/m 4,8 km/h (1 Bft) W-SW 242 2 min 0,000 mm 5,3 UV-I 868 W/m 9,0 C 21,8 C 9,7 km/h (2 Bft) 94,64 %
26.05.2017 14:26 21,8 C 22,2 C 45 % 1018,8 hPa 0,0 l/m 4,0 km/h (1 Bft) SW 232 2 min 0,000 mm 5,3 UV-I 864 W/m 9,3 C 21,8 C 11,3 km/h (2 Bft) 98,00 %
26.05.2017 14:28 21,7 C 22,2 C 46 % 1018,7 hPa 0,0 l/m 5,7 km/h (1 Bft) W-NW 284 2 min 0,000 mm 5,3 UV-I 854 W/m 9,6 C 21,7 C 11,3 km/h (2 Bft) 92,11 %
26.05.2017 14:30 21,8 C 22,2 C 45 % 1018,7 hPa 0,0 l/m 9,4 km/h (2 Bft) W-SW 256 2 min 0,000 mm 5,2 UV-I 846 W/m 9,3 C 20,8 C 16,1 km/h (3 Bft) 96,23 %
26.05.2017 14:32 21,6 C 22,2 C 43 % 1018,7 hPa 0,0 l/m 6,1 km/h (2 Bft) W-NW 288 2 min 0,000 mm 5,1 UV-I 842 W/m 8,5 C 21,6 C 12,9 km/h (3 Bft) 97,73 %
26.05.2017 14:34 21,6 C 22,2 C 44 % 1018,7 hPa 0,0 l/m 6,5 km/h (2 Bft) W 275 2 min 0,000 mm 5,0 UV-I 834 W/m 8,8 C 21,6 C 14,5 km/h (3 Bft) 100,00 %
26.05.2017 14:36 21,4 C 22,2 C 47 % 1018,7 hPa 0,0 l/m 5,3 km/h (1 Bft) W-NW 282 2 min 0,000 mm 5,1 UV-I 838 W/m 9,6 C 21,4 C 12,9 km/h (3 Bft) 94,34 %
26.05.2017 14:38 21,6 C 22,2 C 45 % 1018,7 hPa 0,0 l/m 13,6 km/h (3 Bft) SW 223 2 min 0,000 mm 5,0 UV-I 835 W/m 9,2 C 19,5 C 20,9 km/h (4 Bft) 97,37 %
26.05.2017 14:40 21,8 C 22,2 C 46 % 1018,7 hPa 0,0 l/m 10,6 km/h (2 Bft) W-NW 282 2 min 0,000 mm 4,9 UV-I 835 W/m 9,7 C 20,5 C 16,1 km/h (3 Bft) 98,15 %
26.05.2017 14:42 22,0 C 22,2 C 44 % 1018,7 hPa 0,0 l/m 12,2 km/h (2 Bft) W-SW 252 2 min 0,000 mm 4,9 UV-I 823 W/m 9,2 C 20,3 C 17,7 km/h (3 Bft) 100,00 %
26.05.2017 14:44 22,0 C 22,2 C 42 % 1018,7 hPa 0,0 l/m 11,3 km/h (2 Bft) W-SW 248 2 min 0,000 mm 4,9 UV-I 829 W/m 8,5 C 20,5 C 20,9 km/h (4 Bft) 94,34 %
26.05.2017 14:46 21,9 C 22,2 C 42 % 1018,7 hPa 0,0 l/m 9,3 km/h (2 Bft) NW 321 2 min 0,000 mm 4,9 UV-I 829 W/m 8,4 C 20,9 C 17,7 km/h (3 Bft) 100,00 %
26.05.2017 14:48 21,9 C 22,2 C 43 % 1018,7 hPa 0,0 l/m 6,9 km/h (2 Bft) SW 227 2 min 0,000 mm 4,9 UV-I 829 W/m 8,7 C 21,7 C 11,3 km/h (2 Bft) 100,00 %
26.05.2017 14:50 21,9 C 22,2 C 43 % 1018,6 hPa 0,0 l/m 6,3 km/h (2 Bft) SW 221 2 min 0,000 mm 4,8 UV-I 822 W/m 8,7 C 21,9 C 11,3 km/h (2 Bft) 97,44 %
26.05.2017 14:52 22,1 C 22,2 C 45 % 1018,6 hPa 0,0 l/m 6,2 km/h (2 Bft) W-SW 252 2 min 0,000 mm 4,8 UV-I 817 W/m 9,6 C 22,1 C 12,9 km/h (3 Bft) 95,12 %
26.05.2017 14:54 22,3 C 22,2 C 44 % 1018,6 hPa 0,0 l/m 10,5 km/h (2 Bft) SW 223 2 min 0,000 mm 4,7 UV-I 814 W/m 9,5 C 21,0 C 17,7 km/h (3 Bft) 93,55 %
26.05.2017 14:56 22,4 C 22,2 C 42 % 1018,6 hPa 0,0 l/m 9,7 km/h (2 Bft) W-SW 238 2 min 0,000 mm 4,8 UV-I 815 W/m 8,9 C 21,4 C 16,1 km/h (3 Bft) 97,56 %
26.05.2017 14:58 22,3 C 22,2 C 40 % 1018,6 hPa 0,0 l/m 8,7 km/h (2 Bft) W 267 2 min 0,000 mm 4,8 UV-I 815 W/m 8,0 C 21,6 C 14,5 km/h (3 Bft) 92,45 %
26.05.2017 15:00 22,3 C 22,2 C 41 % 1018,5 hPa 0,0 l/m 9,9 km/h (2 Bft) W-SW 242 2 min 0,559 mm 4,7 UV-I 810 W/m 8,4 C 21,2 C 14,5 km/h (3 Bft) 95,45 %
26.05.2017 15:02 22,3 C 22,2 C 41 % 1018,5 hPa 0,0 l/m 9,7 km/h (2 Bft) W 281 2 min 0,000 mm 4,6 UV-I 805 W/m 8,4 C 21,3 C 19,3 km/h (3 Bft) 95,74 %
26.05.2017 15:04 22,3 C 22,2 C 42 % 1018,6 hPa 0,0 l/m 4,3 km/h (1 Bft) NW 308 2 min 0,000 mm 4,6 UV-I 798 W/m 8,8 C 22,3 C 11,3 km/h (2 Bft) 97,87 %
26.05.2017 15:06 22,3 C 22,2 C 49 % 1018,5 hPa 0,0 l/m 3,6 km/h (1 Bft) W 277 2 min 0,000 mm 4,5 UV-I 793 W/m 11,1 C 22,3 C 8,0 km/h (2 Bft) 91,49 %
26.05.2017 15:08 22,3 C 22,2 C 41 % 1018,5 hPa 0,0 l/m 5,4 km/h (1 Bft) W-SW 247 2 min 0,000 mm 4,5 UV-I 790 W/m 8,4 C 22,3 C 8,0 km/h (2 Bft) 97,37 %
26.05.2017 15:10 22,4 C 22,2 C 42 % 1018,5 hPa 0,0 l/m 6,4 km/h (2 Bft) SW 227 2 min 0,000 mm 4,4 UV-I 785 W/m 8,9 C 22,4 C 16,1 km/h (3 Bft) 96,23 %
26.05.2017 15:12 22,6 C 22,2 C 42 % 1018,4 hPa 0,0 l/m 7,6 km/h (2 Bft) SW 229 2 min 0,000 mm 4,4 UV-I 784 W/m 9,0 C 22,2 C 12,9 km/h (3 Bft) 96,08 %
26.05.2017 15:14 22,8 C 22,2 C 43 % 1018,4 hPa 0,0 l/m 8,7 km/h (2 Bft) SW 226 2 min 0,000 mm 4,4 UV-I 783 W/m 9,6 C 22,1 C 17,7 km/h (3 Bft) 92,68 %
26.05.2017 15:16 22,9 C 22,2 C 39 % 1018,4 hPa 0,0 l/m 11,9 km/h (2 Bft) SW 234 2 min 0,000 mm 4,4 UV-I 782 W/m 8,2 C 21,4 C 20,9 km/h (4 Bft) 98,11 %
26.05.2017 15:18 22,8 C 22,2 C 41 % 1018,4 hPa 0,0 l/m 8,8 km/h (2 Bft) W-SW 258 2 min 0,000 mm 4,3 UV-I 775 W/m 8,9 C 22,1 C 16,1 km/h (3 Bft) 94,74 %
26.05.2017 15:20 22,5 C 22,2 C 41 % 1018,4 hPa 0,0 l/m 6,8 km/h (2 Bft) W-SW 240 2 min 0,000 mm 4,2 UV-I 772 W/m 8,6 C 22,4 C 11,3 km/h (2 Bft) 94,00 %
26.05.2017 15:22 22,4 C 22,2 C 41 % 1018,4 hPa 0,0 l/m 3,7 km/h (1 Bft) SW 236 2 min 0,000 mm 4,1 UV-I 763 W/m 8,5 C 22,4 C 4,8 km/h (1 Bft) 92,50 %
26.05.2017 15:24 22,6 C 22,2 C 41 % 1018,3 hPa 0,0 l/m 3,0 km/h (1 Bft) NW 309 2 min 0,000 mm 4,1 UV-I 757 W/m 8,7 C 22,6 C 6,4 km/h (2 Bft) 94,23 %
26.05.2017 15:26 22,5 C 22,2 C 41 % 1018,3 hPa 0,0 l/m 4,6 km/h (1 Bft) NW 317 2 min 0,000 mm 4,1 UV-I 758 W/m 8,6 C 22,5 C 9,7 km/h (2 Bft) 98,00 %
26.05.2017 15:28 22,4 C 22,2 C 44 % 1018,3 hPa 0,0 l/m 1,5 km/h (1 Bft) NW 307 2 min 0,000 mm 4,0 UV-I 755 W/m 9,5 C 22,4 C 4,8 km/h (1 Bft) 100,00 %
26.05.2017 15:30 22,3 C 22,2 C 42 % 1018,3 hPa 0,0 l/m 5,6 km/h (1 Bft) S-SW 206 2 min 0,000 mm 4,0 UV-I 749 W/m 8,8 C 22,3 C 12,9 km/h (3 Bft) 97,62 %
26.05.2017 15:32 22,4 C 22,2 C 42 % 1018,3 hPa 0,0 l/m 8,3 km/h (2 Bft) S 177 2 min 0,000 mm 4,0 UV-I 745 W/m 8,9 C 21,8 C 14,5 km/h (3 Bft) 93,75 %
26.05.2017 15:34 22,4 C 22,2 C 42 % 1018,3 hPa 0,0 l/m 9,3 km/h (2 Bft) S 190 2 min 0,000 mm 3,9 UV-I 742 W/m 8,9 C 21,5 C 16,1 km/h (3 Bft) 92,68 %
26.05.2017 15:36 22,6 C 22,2 C 40 % 1018,3 hPa 0,0 l/m 10,7 km/h (2 Bft) W-SW 245 2 min 0,000 mm 3,8 UV-I 737 W/m 8,3 C 21,3 C 20,9 km/h (4 Bft) 92,45 %
26.05.2017 15:38 22,6 C 22,2 C 39 % 1018,3 hPa 0,0 l/m 6,4 km/h (2 Bft) W 261 2 min 0,000 mm 3,8 UV-I 734 W/m 7,9 C 22,6 C 12,9 km/h (3 Bft) 97,87 %
26.05.2017 15:40 22,5 C 22,2 C 42 % 1018,2 hPa 0,0 l/m 7,5 km/h (2 Bft) W-SW 246 2 min 0,000 mm 3,7 UV-I 728 W/m 8,9 C 22,1 C 11,3 km/h (2 Bft) 92,68 %
26.05.2017 15:42 22,6 C 22,2 C 41 % 1018,2 hPa 0,0 l/m 9,1 km/h (2 Bft) W 274 2 min 0,000 mm 3,7 UV-I 723 W/m 8,7 C 21,8 C 16,1 km/h (3 Bft) 98,11 %
26.05.2017 15:44 22,7 C 22,2 C 41 % 1018,2 hPa 0,0 l/m 5,9 km/h (2 Bft) W-NW 288 2 min 0,000 mm 3,6 UV-I 717 W/m 8,8 C 22,7 C 9,7 km/h (2 Bft) 92,68 %
26.05.2017 15:46 22,6 C 22,2 C 43 % 1018,1 hPa 0,0 l/m 8,2 km/h (2 Bft) SW 236 2 min 0,000 mm 3,6 UV-I 710 W/m 9,4 C 22,0 C 19,3 km/h (3 Bft) 97,56 %
26.05.2017 15:48 22,7 C 22,2 C 44 % 1018,1 hPa 0,0 l/m 8,9 km/h (2 Bft) W 265 2 min 0,000 mm 3,6 UV-I 712 W/m 9,8 C 21,9 C 12,9 km/h (3 Bft) 93,22 %
26.05.2017 15:50 22,8 C 22,2 C 41 % 1018,2 hPa 0,0 l/m 6,9 km/h (2 Bft) W 267 2 min 0,000 mm 3,6 UV-I 714 W/m 8,9 C 22,6 C 14,5 km/h (3 Bft) 94,74 %
26.05.2017 15:52 22,8 C 22,2 C 41 % 1018,1 hPa 0,0 l/m 6,1 km/h (2 Bft) W-NW 296 2 min 0,000 mm 3,5 UV-I 711 W/m 8,9 C 22,8 C 11,3 km/h (2 Bft) 97,56 %
26.05.2017 15:54 22,8 C 22,2 C 42 % 1018,2 hPa 0,0 l/m 6,0 km/h (2 Bft) W 275 2 min 0,000 mm 3,5 UV-I 703 W/m 9,2 C 22,8 C 11,3 km/h (2 Bft) 96,23 %
26.05.2017 15:56 22,8 C 22,8 C 42 % 1018,1 hPa 0,0 l/m 4,4 km/h (1 Bft) NW 323 2 min 0,000 mm 3,4 UV-I 695 W/m 9,2 C 22,8 C 8,0 km/h (2 Bft) 91,53 %
26.05.2017 15:58 22,6 C 22,8 C 41 % 1018,0 hPa 0,0 l/m 3,8 km/h (1 Bft) S-SW 209 2 min 0,000 mm 3,4 UV-I 691 W/m 8,7 C 22,6 C 8,0 km/h (2 Bft) 97,56 %
26.05.2017 16:00 22,6 C 22,8 C 39 % 1018,0 hPa 0,0 l/m 10,3 km/h (2 Bft) W-SW 242 2 min 0,508 mm 3,3 UV-I 684 W/m 7,9 C 21,4 C 20,9 km/h (4 Bft) 93,62 %
26.05.2017 16:02 22,6 C 22,8 C 38 % 1018,0 hPa 0,0 l/m 11,5 km/h (2 Bft) W-SW 237 2 min 0,000 mm 3,3 UV-I 680 W/m 7,6 C 21,1 C 17,7 km/h (3 Bft) 96,00 %
26.05.2017 16:04 22,7 C 22,8 C 38 % 1018,0 hPa 0,0 l/m 10,0 km/h (2 Bft) W-SW 254 2 min 0,000 mm 3,2 UV-I 677 W/m 7,6 C 21,6 C 17,7 km/h (3 Bft) 97,44 %
26.05.2017 16:06 22,8 C 22,8 C 41 % 1018,0 hPa 0,0 l/m 8,6 km/h (2 Bft) W-SW 244 2 min 0,000 mm 3,2 UV-I 674 W/m 8,9 C 22,1 C 14,5 km/h (3 Bft) 94,00 %
26.05.2017 16:08 22,9 C 22,8 C 39 % 1017,9 hPa 0,0 l/m 8,5 km/h (2 Bft) W-SW 244 2 min 0,000 mm 3,2 UV-I 669 W/m 8,2 C 22,2 C 14,5 km/h (3 Bft) 94,23 %
26.05.2017 16:10 23,0 C 22,8 C 38 % 1018,0 hPa 0,0 l/m 11,5 km/h (2 Bft) W-SW 254 2 min 0,000 mm 3,1 UV-I 659 W/m 7,9 C 21,6 C 19,3 km/h (3 Bft) 94,87 %
26.05.2017 16:12 22,9 C 22,8 C 39 % 1017,9 hPa 0,0 l/m 11,6 km/h (2 Bft) SW 217 2 min 0,000 mm 3,1 UV-I 660 W/m 8,2 C 21,5 C 16,1 km/h (3 Bft) 96,00 %
26.05.2017 16:14 22,9 C 22,8 C 40 % 1017,9 hPa 0,0 l/m 12,4 km/h (3 Bft) SW 223 2 min 0,000 mm 3,0 UV-I 653 W/m 8,6 C 21,3 C 19,3 km/h (3 Bft) 96,00 %
26.05.2017 16:16 22,9 C 22,8 C 39 % 1018,0 hPa 0,0 l/m 9,8 km/h (2 Bft) SW 230 2 min 0,000 mm 3,0 UV-I 650 W/m 8,2 C 21,9 C 14,5 km/h (3 Bft) 97,87 %
26.05.2017 16:18 22,9 C 22,8 C 40 % 1018,0 hPa 0,0 l/m 8,4 km/h (2 Bft) W-NW 286 2 min 0,000 mm 2,9 UV-I 643 W/m 8,6 C 22,3 C 14,5 km/h (3 Bft) 95,12 %
26.05.2017 16:20 22,8 C 22,8 C 40 % 1018,0 hPa 0,0 l/m 2,7 km/h (1 Bft) SW 227 2 min 0,000 mm 2,9 UV-I 636 W/m 8,5 C 22,8 C 6,4 km/h (2 Bft) 97,56 %
26.05.2017 16:22 22,8 C 22,8 C 39 % 1017,9 hPa 0,0 l/m 2,8 km/h (1 Bft) W-SW 242 2 min 0,000 mm 2,8 UV-I 632 W/m 8,1 C 22,8 C 6,4 km/h (2 Bft) 96,23 %
26.05.2017 16:24 22,8 C 22,8 C 39 % 1017,9 hPa 0,0 l/m 5,1 km/h (1 Bft) W 269 2 min 0,000 mm 2,8 UV-I 628 W/m 8,1 C 22,8 C 12,9 km/h (3 Bft) 97,73 %
26.05.2017 16:26 22,6 C 22,8 C 40 % 1017,8 hPa 0,0 l/m 8,4 km/h (2 Bft) W-SW 243 2 min 0,000 mm 2,8 UV-I 625 W/m 8,3 C 22,0 C 14,5 km/h (3 Bft) 94,00 %
26.05.2017 16:28 22,7 C 22,8 C 41 % 1017,9 hPa 0,0 l/m 7,7 km/h (2 Bft) SW 232 2 min 0,000 mm 2,7 UV-I 618 W/m 8,8 C 22,3 C 12,9 km/h (3 Bft) 94,00 %
26.05.2017 16:30 22,8 C 22,8 C 40 % 1017,8 hPa 0,0 l/m 7,3 km/h (2 Bft) S-SW 211 2 min 0,000 mm 2,7 UV-I 612 W/m 8,5 C 22,5 C 14,5 km/h (3 Bft) 97,87 %
26.05.2017 16:32 22,9 C 22,8 C 42 % 1017,8 hPa 0,0 l/m 6,0 km/h (2 Bft) W 263 2 min 0,000 mm 2,6 UV-I 606 W/m 9,3 C 22,9 C 12,9 km/h (3 Bft) 98,00 %
26.05.2017 16:34 22,9 C 22,8 C 40 % 1017,8 hPa 0,0 l/m 9,4 km/h (2 Bft) W-SW 249 2 min 0,000 mm 2,6 UV-I 603 W/m 8,6 C 22,0 C 17,7 km/h (3 Bft) 94,74 %
26.05.2017 16:36 22,9 C 22,8 C 40 % 1017,8 hPa 0,0 l/m 9,5 km/h (2 Bft) W-SW 252 2 min 0,000 mm 2,6 UV-I 601 W/m 8,6 C 22,0 C 17,7 km/h (3 Bft) 94,00 %
26.05.2017 16:38 22,9 C 22,8 C 42 % 1017,8 hPa 0,0 l/m 5,8 km/h (2 Bft) SW 229 2 min 0,000 mm 2,5 UV-I 597 W/m 9,3 C 22,9 C 11,3 km/h (2 Bft) 97,87 %
26.05.2017 16:40 22,9 C 22,8 C 41 % 1017,8 hPa 0,0 l/m 7,4 km/h (2 Bft) S-SW 209 2 min 0,000 mm 2,5 UV-I 592 W/m 8,9 C 22,6 C 12,9 km/h (3 Bft) 98,00 %
26.05.2017 16:42 22,9 C 22,8 C 39 % 1017,8 hPa 0,0 l/m 5,2 km/h (1 Bft) SW 223 2 min 0,000 mm 2,4 UV-I 585 W/m 8,2 C 22,9 C 16,1 km/h (3 Bft) 95,45 %
26.05.2017 16:44 22,9 C 22,8 C 41 % 1017,9 hPa 0,0 l/m 10,6 km/h (2 Bft) S-SW 201 2 min 0,000 mm 2,4 UV-I 580 W/m 8,9 C 21,7 C 14,5 km/h (3 Bft) 94,00 %
26.05.2017 16:46 22,8 C 22,8 C 39 % 1017,8 hPa 0,0 l/m 6,2 km/h (2 Bft) W 268 2 min 0,000 mm 2,3 UV-I 573 W/m 8,1 C 22,8 C 12,9 km/h (3 Bft) 97,87 %
26.05.2017 16:48 22,7 C 22,8 C 41 % 1017,8 hPa 0,0 l/m 8,1 km/h (2 Bft) SW 221 2 min 0,000 mm 2,3 UV-I 569 W/m 8,8 C 22,2 C 12,9 km/h (3 Bft) 100,00 %
26.05.2017 16:50 22,7 C 22,8 C 40 % 1017,8 hPa 0,0 l/m 11,5 km/h (2 Bft) W-SW 253 2 min 0,000 mm 2,2 UV-I 564 W/m 8,4 C 21,3 C 19,3 km/h (3 Bft) 97,56 %
26.05.2017 16:52 22,7 C 22,8 C 41 % 1017,8 hPa 0,0 l/m 8,1 km/h (2 Bft) W 259 2 min 0,000 mm 2,2 UV-I 561 W/m 8,8 C 22,2 C 16,1 km/h (3 Bft) 97,56 %
26.05.2017 16:54 22,8 C 22,8 C 44 % 1017,8 hPa 0,0 l/m 4,1 km/h (1 Bft) W-SW 242 2 min 0,000 mm 2,2 UV-I 553 W/m 9,9 C 22,8 C 11,3 km/h (2 Bft) 94,34 %
26.05.2017 16:56 23,1 C 22,8 C 43 % 1017,7 hPa 0,0 l/m 6,2 km/h (2 Bft) S 179 2 min 0,000 mm 2,1 UV-I 547 W/m 9,8 C 23,1 C 11,3 km/h (2 Bft) 97,56 %
26.05.2017 16:58 23,0 C 22,8 C 41 % 1017,7 hPa 0,0 l/m 7,1 km/h (2 Bft) SW 234 2 min 0,000 mm 2,1 UV-I 541 W/m 9,0 C 22,8 C 12,9 km/h (3 Bft) 96,23 %
26.05.2017 17:00 23,1 C 22,8 C 40 % 1017,7 hPa 0,0 l/m 9,6 km/h (2 Bft) SW 223 2 min 0,000 mm 2,0 UV-I 534 W/m 8,8 C 22,2 C 14,5 km/h (3 Bft) 97,56 %
26.05.2017 17:02 23,1 C 22,8 C 41 % 1017,7 hPa 0,0 l/m 11,0 km/h (2 Bft) W 277 2 min 0,457 mm 2,0 UV-I 529 W/m 9,1 C 21,8 C 20,9 km/h (4 Bft) 98,11 %
26.05.2017 17:04 23,0 C 22,8 C 39 % 1017,7 hPa 0,0 l/m 9,3 km/h (2 Bft) SW 216 2 min 0,000 mm 2,0 UV-I 526 W/m 8,3 C 22,1 C 19,3 km/h (3 Bft) 98,11 %
26.05.2017 17:06 22,8 C 22,8 C 39 % 1017,7 hPa 0,0 l/m 4,9 km/h (1 Bft) W-SW 248 2 min 0,000 mm 1,9 UV-I 521 W/m 8,1 C 22,8 C 9,7 km/h (2 Bft) 95,45 %
26.05.2017 17:08 22,8 C 22,8 C 41 % 1017,6 hPa 0,0 l/m 3,9 km/h (1 Bft) W-NW 294 2 min 0,000 mm 1,9 UV-I 516 W/m 8,9 C 22,8 C 6,4 km/h (2 Bft) 94,00 %
26.05.2017 17:10 22,9 C 22,8 C 43 % 1017,7 hPa 0,0 l/m 1,5 km/h (1 Bft) W-NW 292 2 min 0,000 mm 1,9 UV-I 512 W/m 9,6 C 22,9 C 3,2 km/h (1 Bft) 97,56 %
26.05.2017 17:12 22,9 C 22,8 C 41 % 1017,6 hPa 0,0 l/m 4,4 km/h (1 Bft) S 191 2 min 0,000 mm 1,8 UV-I 504 W/m 8,9 C 22,9 C 8,0 km/h (2 Bft) 95,12 %
26.05.2017 17:14 22,9 C 22,8 C 40 % 1017,6 hPa 0,0 l/m 3,3 km/h (1 Bft) S 176 2 min 0,000 mm 1,8 UV-I 496 W/m 8,6 C 22,9 C 9,7 km/h (2 Bft) 98,00 %
26.05.2017 17:16 22,8 C 22,8 C 40 % 1017,6 hPa 0,0 l/m 1,9 km/h (1 Bft) S-SO 167 2 min 0,000 mm 1,7 UV-I 489 W/m 8,5 C 22,8 C 4,8 km/h (1 Bft) 96,08 %
26.05.2017 17:18 22,7 C 22,8 C 41 % 1017,6 hPa 0,0 l/m 2,2 km/h (1 Bft) S-SW 198 2 min 0,000 mm 1,7 UV-I 485 W/m 8,8 C 22,7 C 4,8 km/h (1 Bft) 98,00 %
26.05.2017 17:20 22,8 C 22,8 C 41 % 1017,6 hPa 0,0 l/m 4,7 km/h (1 Bft) SW 227 2 min 0,000 mm 1,6 UV-I 477 W/m 8,9 C 22,8 C 8,0 km/h (2 Bft) 97,37 %
26.05.2017 17:22 22,8 C 22,8 C 40 % 1017,5 hPa 0,0 l/m 4,3 km/h (1 Bft) W-NW 296 2 min 0,000 mm 1,6 UV-I 475 W/m 8,5 C 22,8 C 9,7 km/h (2 Bft) 96,00 %
26.05.2017 17:24 23,0 C 22,8 C 41 % 1017,5 hPa 0,0 l/m 12,1 km/h (2 Bft) W-SW 250 2 min 0,000 mm 1,6 UV-I 472 W/m 9,0 C 21,5 C 17,7 km/h (3 Bft) 94,34 %
26.05.2017 17:26 22,9 C 22,8 C 41 % 1017,5 hPa 0,0 l/m 5,8 km/h (2 Bft) W-SW 244 2 min 0,000 mm 1,6 UV-I 464 W/m 8,9 C 22,9 C 11,3 km/h (2 Bft) 100,00 %
26.05.2017 17:28 22,8 C 22,8 C 40 % 1017,5 hPa 0,0 l/m 2,2 km/h (1 Bft) W-SW 248 2 min 0,000 mm 1,5 UV-I 458 W/m 8,5 C 22,8 C 4,8 km/h (1 Bft) 98,11 %
26.05.2017 17:30 22,8 C 22,8 C 42 % 1017,5 hPa 0,0 l/m 1,7 km/h (1 Bft) W-SW 248 2 min 0,000 mm 1,5 UV-I 452 W/m 9,2 C 22,8 C 4,8 km/h (1 Bft) 100,00 %
26.05.2017 17:32 23,0 C 22,8 C 44 % 1017,5 hPa 0,0 l/m 5,1 km/h (1 Bft) W 264 2 min 0,000 mm 1,4 UV-I 442 W/m 10,1 C 23,0 C 8,0 km/h (2 Bft) 98,11 %
26.05.2017 17:34 23,1 C 22,8 C 40 % 1017,5 hPa 0,0 l/m 4,5 km/h (1 Bft) S 186 2 min 0,000 mm 1,4 UV-I 439 W/m 8,8 C 23,1 C 6,4 km/h (2 Bft) 100,00 %
26.05.2017 17:36 22,9 C 22,8 C 41 % 1017,5 hPa 0,0 l/m 3,0 km/h (1 Bft) W-NW 290 2 min 0,000 mm 1,4 UV-I 435 W/m 8,9 C 22,9 C 6,4 km/h (2 Bft) 97,01 %
26.05.2017 17:38 22,9 C 22,8 C 41 % 1017,5 hPa 0,0 l/m 2,6 km/h (1 Bft) NW 304 2 min 0,000 mm 1,3 UV-I 431 W/m 8,9 C 22,9 C 4,8 km/h (1 Bft) 97,56 %
26.05.2017 17:40 22,8 C 22,8 C 42 % 1017,5 hPa 0,0 l/m 1,6 km/h (1 Bft) NW 314 2 min 0,000 mm 1,3 UV-I 426 W/m 9,2 C 22,8 C 3,2 km/h (1 Bft) 100,00 %
26.05.2017 17:42 22,8 C 22,8 C 45 % 1017,4 hPa 0,0 l/m 1,6 km/h (1 Bft) N-NW 342 2 min 0,000 mm 1,3 UV-I 421 W/m 10,2 C 22,8 C 4,8 km/h (1 Bft) 100,00 %
26.05.2017 17:44 22,8 C 22,8 C 43 % 1017,4 hPa 0,0 l/m 1,4 km/h (1 Bft) NW 313 2 min 0,000 mm 1,3 UV-I 415 W/m 9,6 C 22,8 C 3,2 km/h (1 Bft) 97,14 %
26.05.2017 17:46 22,7 C 22,8 C 45 % 1017,4 hPa 0,0 l/m 0,8 km/h (0 Bft) N-NW 327 2 min 0,000 mm 1,2 UV-I 410 W/m 10,1 C 22,7 C 3,2 km/h (1 Bft) 100,00 %
26.05.2017 17:48 22,5 C 22,8 C 43 % 1017,4 hPa 0,0 l/m 0,2 km/h (0 Bft) N-NW 327 2 min 0,000 mm 1,2 UV-I 402 W/m 9,3 C 22,5 C 1,6 km/h (1 Bft) 100,00 %
26.05.2017 17:50 22,5 C 22,8 C 44 % 1017,4 hPa 0,0 l/m 0,5 km/h (0 Bft) N-NW 327 2 min 0,000 mm 1,2 UV-I 398 W/m 9,6 C 22,5 C 1,6 km/h (1 Bft) 97,87 %
26.05.2017 17:52 22,6 C 22,8 C 42 % 1017,4 hPa 0,0 l/m 1,7 km/h (1 Bft) W 271 2 min 0,000 mm 1,1 UV-I 391 W/m 9,0 C 22,6 C 4,8 km/h (1 Bft) 100,00 %
26.05.2017 17:54 22,7 C 22,8 C 46 % 1017,4 hPa 0,0 l/m 3,2 km/h (1 Bft) N 5 2 min 0,000 mm 1,1 UV-I 386 W/m 10,5 C 22,7 C 6,4 km/h (2 Bft) 100,00 %
26.05.2017 17:56 22,7 C 22,8 C 47 % 1017,4 hPa 0,0 l/m 1,5 km/h (1 Bft) N 355 2 min 0,000 mm 1,1 UV-I 381 W/m 10,8 C 22,7 C 4,8 km/h (1 Bft) 100,00 %
26.05.2017 17:58 22,6 C 22,8 C 46 % 1017,4 hPa 0,0 l/m 0,6 km/h (0 Bft) W 278 2 min 0,000 mm 1,0 UV-I 377 W/m 10,4 C 22,6 C 4,8 km/h (1 Bft) 97,56 %
26.05.2017 18:00 22,6 C 22,8 C 41 % 1017,3 hPa 0,0 l/m 4,6 km/h (1 Bft) W 265 2 min 0,305 mm 1,0 UV-I 369 W/m 8,7 C 22,6 C 6,4 km/h (2 Bft) 100,00 %
26.05.2017 18:02 22,5 C 22,8 C 41 % 1017,3 hPa 0,0 l/m 2,2 km/h (1 Bft) W 265 2 min 0,000 mm 0,8 UV-I 296 W/m 8,6 C 22,5 C 4,8 km/h (1 Bft) 97,87 %
26.05.2017 18:04 22,3 C 22,8 C 42 % 1017,3 hPa 0,0 l/m 2,5 km/h (1 Bft) W 264 0 min 0,000 mm 0,8 UV-I 65 W/m 8,8 C 22,3 C 4,8 km/h (1 Bft) 100,00 %
26.05.2017 18:06 22,2 C 22,8 C 42 % 1017,3 hPa 0,0 l/m 0,1 km/h (0 Bft) W 264 0 min 0,000 mm 0,7 UV-I 65 W/m 8,7 C 22,2 C 1,6 km/h (1 Bft) 98,21 %
26.05.2017 18:08 22,1 C 22,8 C 42 % 1017,3 hPa 0,0 l/m 2,6 km/h (1 Bft) SW 216 0 min 0,000 mm 0,7 UV-I 65 W/m 8,6 C 22,1 C 6,4 km/h (2 Bft) 98,00 %
26.05.2017 18:10 21,9 C 22,8 C 44 % 1017,3 hPa 0,0 l/m 3,7 km/h (1 Bft) S-SW 212 0 min 0,000 mm 0,7 UV-I 79 W/m 9,1 C 21,9 C 6,4 km/h (2 Bft) 97,56 %
26.05.2017 18:12 22,0 C 22,8 C 44 % 1017,3 hPa 0,0 l/m 2,9 km/h (1 Bft) SW 225 2 min 0,000 mm 0,8 UV-I 228 W/m 9,2 C 22,0 C 6,4 km/h (2 Bft) 98,00 %
26.05.2017 18:14 22,2 C 22,8 C 43 % 1017,3 hPa 0,0 l/m 2,9 km/h (1 Bft) SW 223 2 min 0,000 mm 0,8 UV-I 311 W/m 9,0 C 22,2 C 6,4 km/h (2 Bft) 100,00 %
26.05.2017 18:16 22,3 C 22,8 C 44 % 1017,3 hPa 0,0 l/m 1,5 km/h (1 Bft) SW 229 2 min 0,000 mm 0,8 UV-I 284 W/m 9,5 C 22,3 C 4,8 km/h (1 Bft) 100,00 %
26.05.2017 18:18 22,4 C 22,8 C 44 % 1017,3 hPa 0,0 l/m 1,9 km/h (1 Bft) SW 233 2 min 0,000 mm 0,8 UV-I 309 W/m 9,5 C 22,4 C 4,8 km/h (1 Bft) 93,62 %
26.05.2017 18:20 22,4 C 22,8 C 43 % 1017,2 hPa 0,0 l/m 2,4 km/h (1 Bft) SW 234 2 min 0,000 mm 0,7 UV-I 304 W/m 9,2 C 22,4 C 6,4 km/h (2 Bft) 95,74 %
26.05.2017 18:22 22,5 C 22,8 C 42 % 1017,2 hPa 0,0 l/m 3,3 km/h (1 Bft) SW 225 2 min 0,000 mm 0,7 UV-I 299 W/m 8,9 C 22,5 C 6,4 km/h (2 Bft) 94,74 %
26.05.2017 18:24 22,7 C 22,8 C 45 % 1017,2 hPa 0,0 l/m 0,5 km/h (0 Bft) SW 225 2 min 0,000 mm 0,7 UV-I 295 W/m 10,1 C 22,7 C 3,2 km/h (1 Bft) 93,18 %
26.05.2017 18:26 22,7 C 22,8 C 44 % 1017,2 hPa 0,0 l/m 2,4 km/h (1 Bft) SW 227 2 min 0,000 mm 0,7 UV-I 295 W/m 9,8 C 22,7 C 4,8 km/h (1 Bft) 94,00 %
26.05.2017 18:28 22,8 C 22,8 C 44 % 1017,2 hPa 0,0 l/m 3,0 km/h (1 Bft) W-SW 253 2 min 0,000 mm 0,7 UV-I 294 W/m 9,9 C 22,8 C 6,4 km/h (2 Bft) 95,74 %
26.05.2017 18:30 22,8 C 22,8 C 42 % 1017,2 hPa 0,0 l/m 6,3 km/h (2 Bft) W 263 2 min 0,000 mm 0,6 UV-I 296 W/m 9,2 C 22,8 C 11,3 km/h (2 Bft) 100,00 %
26.05.2017 18:32 22,9 C 22,8 C 41 % 1017,3 hPa 0,0 l/m 4,9 km/h (1 Bft) W-SW 258 2 min 0,000 mm 0,6 UV-I 298 W/m 8,9 C 22,9 C 11,3 km/h (2 Bft) 97,37 %
26.05.2017 18:34 22,8 C 22,8 C 42 % 1017,2 hPa 0,0 l/m 8,4 km/h (2 Bft) W-SW 257 2 min 0,000 mm 0,6 UV-I 301 W/m 9,2 C 22,2 C 11,3 km/h (2 Bft) 98,21 %
26.05.2017 18:36 22,8 C 22,8 C 41 % 1017,3 hPa 0,0 l/m 7,7 km/h (2 Bft) W 268 2 min 0,000 mm 0,6 UV-I 312 W/m 8,9 C 22,4 C 12,9 km/h (3 Bft) 92,11 %
26.05.2017 18:38 22,9 C 22,8 C 42 % 1017,3 hPa 0,0 l/m 5,9 km/h (2 Bft) W 271 2 min 0,000 mm 0,6 UV-I 316 W/m 9,3 C 22,9 C 11,3 km/h (2 Bft) 92,86 %
26.05.2017 18:40 22,8 C 22,8 C 43 % 1017,3 hPa 0,0 l/m 2,6 km/h (1 Bft) W 278 2 min 0,000 mm 0,5 UV-I 325 W/m 9,6 C 22,8 C 6,4 km/h (2 Bft) 97,87 %
26.05.2017 18:42 22,8 C 22,8 C 41 % 1017,3 hPa 0,0 l/m 4,8 km/h (1 Bft) W-SW 248 2 min 0,000 mm 0,5 UV-I 338 W/m 8,9 C 22,8 C 6,4 km/h (2 Bft) 100,00 %
26.05.2017 18:44 22,8 C 22,8 C 41 % 1017,3 hPa 0,0 l/m 4,1 km/h (1 Bft) W-SW 255 2 min 0,000 mm 0,5 UV-I 335 W/m 8,9 C 22,8 C 6,4 km/h (2 Bft) 100,00 %
26.05.2017 18:46 22,8 C 22,8 C 41 % 1017,4 hPa 0,0 l/m 2,5 km/h (1 Bft) W 260 2 min 0,000 mm 0,1 UV-I 328 W/m 8,9 C 22,8 C 4,8 km/h (1 Bft) 95,24 %
26.05.2017 18:48 22,8 C 22,8 C 41 % 1017,4 hPa 0,0 l/m 2,4 km/h (1 Bft) W 260 2 min 0,000 mm 0,0 UV-I 323 W/m 8,9 C 22,8 C 4,8 km/h (1 Bft) 100,00 %
26.05.2017 18:50 22,8 C 22,8 C 42 % 1017,4 hPa 0,0 l/m 1,6 km/h (1 Bft) W 260 2 min 0,000 mm 0,0 UV-I 312 W/m 9,2 C 22,8 C 4,8 km/h (1 Bft) 97,56 %
26.05.2017 18:52 22,9 C 22,8 C 44 % 1017,3 hPa 0,0 l/m 0,7 km/h (0 Bft) W-NW 302 2 min 0,000 mm 0,0 UV-I 298 W/m 10,0 C 22,9 C 3,2 km/h (1 Bft) 95,83 %
26.05.2017 18:54 22,9 C 22,8 C 45 % 1017,4 hPa 0,0 l/m 2,8 km/h (1 Bft) W-NW 291 2 min 0,000 mm 0,0 UV-I 285 W/m 10,3 C 22,9 C 8,0 km/h (2 Bft) 93,62 %
26.05.2017 18:56 22,8 C 22,8 C 46 % 1017,4 hPa 0,0 l/m 1,9 km/h (1 Bft) N-NW 343 2 min 0,000 mm 0,0 UV-I 279 W/m 10,6 C 22,8 C 6,4 km/h (2 Bft) 98,00 %
26.05.2017 18:58 22,6 C 22,8 C 49 % 1017,4 hPa 0,0 l/m 0,7 km/h (0 Bft) N-NW 344 2 min 0,000 mm 0,0 UV-I 247 W/m 11,3 C 22,6 C 1,6 km/h (1 Bft) 95,45 %
26.05.2017 19:00 22,3 C 22,8 C 48 % 1017,4 hPa 0,0 l/m 1,6 km/h (1 Bft) N-NW 335 2 min 0,203 mm 0,0 UV-I 250 W/m 10,8 C 22,3 C 3,2 km/h (1 Bft) 98,11 %
26.05.2017 19:02 22,2 C 22,8 C 49 % 1017,4 hPa 0,0 l/m 0,5 km/h (0 Bft) N-NW 338 0 min 0,000 mm 0,0 UV-I 143 W/m 11,0 C 22,2 C 3,2 km/h (1 Bft) 94,74 %
26.05.2017 19:04 22,0 C 22,8 C 47 % 1017,5 hPa 0,0 l/m 0,4 km/h (0 Bft) N-NW 338 0 min 0,000 mm 0,0 UV-I 125 W/m 10,2 C 22,0 C 1,6 km/h (1 Bft) 94,64 %
26.05.2017 19:06 22,0 C 22,8 C 49 % 1017,4 hPa 0,0 l/m 0,1 km/h (0 Bft) N-NW 336 2 min 0,000 mm 0,0 UV-I 184 W/m 10,8 C 22,0 C 1,6 km/h (1 Bft) 97,56 %
26.05.2017 19:08 21,8 C 22,8 C 47 % 1017,4 hPa 0,0 l/m 0,4 km/h (0 Bft) N-NW 336 0 min 0,000 mm 0,0 UV-I 108 W/m 10,0 C 21,8 C 1,6 km/h (1 Bft) 97,56 %
26.05.2017 19:10 21,8 C 22,8 C 46 % 1017,4 hPa 0,0 l/m 0,7 km/h (0 Bft) N-NW 336 0 min 0,000 mm 0,0 UV-I 119 W/m 9,7 C 21,8 C 1,6 km/h (1 Bft) 98,00 %
26.05.2017 19:12 21,8 C 22,8 C 48 % 1017,3 hPa 0,0 l/m 0,3 km/h (0 Bft) N-NW 336 0 min 0,000 mm 0,0 UV-I 99 W/m 10,3 C 21,8 C 3,2 km/h (1 Bft) 88,00 %
26.05.2017 19:14 21,7 C 22,8 C 48 % 1017,4 hPa 0,0 l/m 0,9 km/h (0 Bft) N-NW 347 0 min 0,000 mm 0,0 UV-I 95 W/m 10,2 C 21,7 C 4,8 km/h (1 Bft) 91,49 %
26.05.2017 19:16 21,7 C 22,8 C 48 % 1017,4 hPa 0,0 l/m 2,8 km/h (1 Bft) N 351 0 min 0,000 mm 0,0 UV-I 92 W/m 10,2 C 21,7 C 4,8 km/h (1 Bft) 95,74 %
26.05.2017 19:18 21,5 C 22,8 C 51 % 1017,3 hPa 0,0 l/m 0,2 km/h (0 Bft) N 351 0 min 0,000 mm 0,0 UV-I 90 W/m 10,9 C 21,5 C 1,6 km/h (1 Bft) 94,00 %
26.05.2017 19:20 21,4 C 22,8 C 50 % 1017,3 hPa 0,0 l/m 0,0 km/h (0 Bft) N 351 0 min 0,000 mm 0,0 UV-I 88 W/m 10,5 C 21,4 C 0,0 km/h (0 Bft) 93,62 %
26.05.2017 19:22 21,4 C 22,8 C 53 % 1017,3 hPa 0,0 l/m 0,2 km/h (0 Bft) N 351 0 min 0,000 mm 0,0 UV-I 84 W/m 11,4 C 21,4 C 1,6 km/h (1 Bft) 95,74 %
26.05.2017 19:24 21,2 C 22,8 C 53 % 1017,4 hPa 0,0 l/m 0,0 km/h (0 Bft) N 351 0 min 0,000 mm 0,0 UV-I 79 W/m 11,2 C 21,2 C 1,6 km/h (1 Bft) 94,44 %
26.05.2017 19:26 21,1 C 22,8 C 54 % 1017,4 hPa 0,0 l/m 0,1 km/h (0 Bft) N 351 0 min 0,000 mm 0,0 UV-I 73 W/m 11,4 C 21,1 C 1,6 km/h (1 Bft) 94,00 %
26.05.2017 19:28 20,9 C 22,8 C 56 % 1017,4 hPa 0,0 l/m 0,0 km/h (0 Bft) N 351 0 min 0,000 mm 0,0 UV-I 66 W/m 11,8 C 20,9 C 0,0 km/h (0 Bft) 93,62 %
26.05.2017 19:30 20,7 C 22,8 C 56 % 1017,5 hPa 0,0 l/m 0,1 km/h (0 Bft) N 351 0 min 0,000 mm 0,0 UV-I 60 W/m 11,6 C 20,7 C 1,6 km/h (1 Bft) 95,74 %
26.05.2017 19:32 20,7 C 22,8 C 56 % 1017,5 hPa 0,0 l/m 0,2 km/h (0 Bft) N 351 0 min 0,000 mm 0,0 UV-I 57 W/m 11,6 C 20,7 C 1,6 km/h (1 Bft) 98,11 %
26.05.2017 19:34 20,5 C 22,8 C 58 % 1017,5 hPa 0,0 l/m 6,4 km/h (2 Bft) N-NO 25 0 min 0,000 mm 0,0 UV-I 54 W/m 11,9 C 20,5 C 8,0 km/h (2 Bft) 97,37 %
26.05.2017 19:36 20,4 C 22,8 C 56 % 1017,5 hPa 0,0 l/m 4,9 km/h (1 Bft) N-NO 30 0 min 0,000 mm 0,0 UV-I 53 W/m 11,3 C 20,4 C 8,0 km/h (2 Bft) 100,00 %
26.05.2017 19:38 20,4 C 22,8 C 56 % 1017,5 hPa 0,0 l/m 2,4 km/h (1 Bft) NO 36 0 min 0,000 mm 0,0 UV-I 53 W/m 11,3 C 20,4 C 4,8 km/h (1 Bft) 93,62 %
26.05.2017 19:40 20,4 C 22,8 C 56 % 1017,5 hPa 0,0 l/m 2,0 km/h (1 Bft) N-NO 14 0 min 0,000 mm 0,0 UV-I 54 W/m 11,3 C 20,4 C 4,8 km/h (1 Bft) 97,87 %
26.05.2017 19:42 20,4 C 22,8 C 56 % 1017,5 hPa 0,0 l/m 5,9 km/h (2 Bft) NO 40 0 min 0,000 mm 0,0 UV-I 55 W/m 11,3 C 20,4 C 9,7 km/h (2 Bft) 100,00 %
26.05.2017 19:44 20,4 C 22,8 C 56 % 1017,5 hPa 0,0 l/m 5,9 km/h (2 Bft) O-NO 63 0 min 0,000 mm 0,0 UV-I 54 W/m 11,3 C 20,4 C 9,7 km/h (2 Bft) 100,00 %
26.05.2017 19:46 20,4 C 22,8 C 54 % 1017,5 hPa 0,0 l/m 5,5 km/h (1 Bft) NO 55 0 min 0,000 mm 0,0 UV-I 50 W/m 10,8 C 20,4 C 8,0 km/h (2 Bft) 96,00 %
26.05.2017 19:48 20,4 C 22,8 C 53 % 1017,5 hPa 0,0 l/m 6,1 km/h (2 Bft) O-NO 63 0 min 0,000 mm 0,0 UV-I 46 W/m 10,5 C 20,4 C 9,7 km/h (2 Bft) 94,00 %
26.05.2017 19:50 20,4 C 22,8 C 53 % 1017,5 hPa 0,0 l/m 6,3 km/h (2 Bft) NO 50 0 min 0,000 mm 0,0 UV-I 43 W/m 10,5 C 20,4 C 9,7 km/h (2 Bft) 97,37 %
26.05.2017 19:52 20,4 C 22,8 C 53 % 1017,5 hPa 0,0 l/m 6,3 km/h (2 Bft) O-NO 72 0 min 0,000 mm 0,0 UV-I 37 W/m 10,5 C 20,4 C 9,7 km/h (2 Bft) 100,00 %
26.05.2017 19:54 20,3 C 22,8 C 55 % 1017,4 hPa 0,0 l/m 5,7 km/h (1 Bft) O-NO 74 0 min 0,000 mm 0,0 UV-I 32 W/m 11,0 C 20,3 C 8,0 km/h (2 Bft) 93,62 %
26.05.2017 19:56 20,2 C 22,8 C 55 % 1017,5 hPa 0,0 l/m 4,9 km/h (1 Bft) NO 51 0 min 0,000 mm 0,0 UV-I 29 W/m 10,9 C 20,2 C 8,0 km/h (2 Bft) 94,00 %
26.05.2017 19:58 20,2 C 22,8 C 56 % 1017,5 hPa 0,0 l/m 5,7 km/h (1 Bft) O-NO 59 0 min 0,000 mm 0,0 UV-I 29 W/m 11,1 C 20,2 C 8,0 km/h (2 Bft) 90,00 %
26.05.2017 20:00 20,1 C 22,8 C 56 % 1017,5 hPa 0,0 l/m 6,0 km/h (2 Bft) O-NO 67 0 min 0,000 mm 0,0 UV-I 31 W/m 11,0 C 20,1 C 9,7 km/h (2 Bft) 93,62 %
26.05.2017 20:02 20,0 C 22,8 C 56 % 1017,5 hPa 0,0 l/m 6,5 km/h (2 Bft) O-NO 72 0 min 0,076 mm 0,0 UV-I 34 W/m 11,0 C 20,0 C 9,7 km/h (2 Bft) 97,62 %
26.05.2017 20:04 19,9 C 22,8 C 57 % 1017,5 hPa 0,0 l/m 6,1 km/h (2 Bft) O-NO 63 0 min 0,000 mm 0,0 UV-I 37 W/m 11,1 C 19,9 C 9,7 km/h (2 Bft) 90,57 %
26.05.2017 20:06 19,8 C 22,8 C 57 % 1017,5 hPa 0,0 l/m 5,4 km/h (1 Bft) O-NO 74 0 min 0,000 mm 0,0 UV-I 28 W/m 11,0 C 19,8 C 8,0 km/h (2 Bft) 97,56 %
26.05.2017 20:08 19,8 C 22,8 C 56 % 1017,5 hPa 0,0 l/m 4,9 km/h (1 Bft) O-NO 70 0 min 0,000 mm 0,0 UV-I 28 W/m 10,8 C 19,8 C 8,0 km/h (2 Bft) 98,00 %
26.05.2017 20:10 19,8 C 22,8 C 56 % 1017,5 hPa 0,0 l/m 4,6 km/h (1 Bft) O-NO 61 0 min 0,000 mm 0,0 UV-I 28 W/m 10,8 C 19,8 C 8,0 km/h (2 Bft) 95,12 %
26.05.2017 20:12 19,8 C 22,8 C 57 % 1017,5 hPa 0,0 l/m 2,9 km/h (1 Bft) O-NO 61 0 min 0,000 mm 0,0 UV-I 28 W/m 11,0 C 19,8 C 4,8 km/h (1 Bft) 96,23 %
26.05.2017 20:14 19,6 C 22,8 C 59 % 1017,5 hPa 0,0 l/m 2,6 km/h (1 Bft) O-NO 61 0 min 0,000 mm 0,0 UV-I 28 W/m 11,4 C 19,6 C 4,8 km/h (1 Bft) 94,00 %
26.05.2017 20:16 19,5 C 22,8 C 59 % 1017,5 hPa 0,0 l/m 3,1 km/h (1 Bft) O-NO 61 0 min 0,000 mm 0,0 UV-I 30 W/m 11,3 C 19,5 C 4,8 km/h (1 Bft) 95,12 %
26.05.2017 20:18 19,5 C 22,8 C 57 % 1017,5 hPa 0,0 l/m 2,7 km/h (1 Bft) O-NO 61 0 min 0,000 mm 0,0 UV-I 27 W/m 10,8 C 19,5 C 4,8 km/h (1 Bft) 93,62 %
26.05.2017 20:20 19,6 C 22,8 C 55 % 1017,5 hPa 0,0 l/m 4,2 km/h (1 Bft) O 86 0 min 0,000 mm 0,0 UV-I 26 W/m 10,3 C 19,6 C 6,4 km/h (2 Bft) 96,00 %
26.05.2017 20:22 19,7 C 22,8 C 58 % 1017,5 hPa 0,0 l/m 3,7 km/h (1 Bft) O 86 0 min 0,000 mm 0,0 UV-I 26 W/m 11,2 C 19,7 C 4,8 km/h (1 Bft) 98,00 %
26.05.2017 20:24 19,7 C 22,8 C 57 % 1017,5 hPa 0,0 l/m 5,0 km/h (1 Bft) O 86 0 min 0,000 mm 0,0 UV-I 21 W/m 10,9 C 19,7 C 6,4 km/h (2 Bft) 97,37 %
26.05.2017 20:26 19,7 C 22,8 C 56 % 1017,5 hPa 0,0 l/m 4,6 km/h (1 Bft) O 83 0 min 0,000 mm 0,0 UV-I 18 W/m 10,7 C 19,7 C 8,0 km/h (2 Bft) 96,00 %
26.05.2017 20:28 19,7 C 22,8 C 56 % 1017,5 hPa 0,0 l/m 4,3 km/h (1 Bft) O-SO 105 0 min 0,000 mm 0,0 UV-I 15 W/m 10,7 C 19,7 C 6,4 km/h (2 Bft) 98,00 %
26.05.2017 20:30 19,7 C 22,8 C 57 % 1017,5 hPa 0,0 l/m 4,7 km/h (1 Bft) O 101 0 min 0,000 mm 0,0 UV-I 12 W/m 10,9 C 19,7 C 6,4 km/h (2 Bft) 89,47 %
26.05.2017 20:32 19,7 C 22,8 C 57 % 1017,5 hPa 0,0 l/m 4,5 km/h (1 Bft) O 101 0 min 0,000 mm 0,0 UV-I 12 W/m 10,9 C 19,7 C 6,4 km/h (2 Bft) 94,34 %
26.05.2017 20:34 19,7 C 22,8 C 56 % 1017,6 hPa 0,0 l/m 5,2 km/h (1 Bft) O 98 0 min 0,000 mm 0,0 UV-I 11 W/m 10,7 C 19,7 C 6,4 km/h (2 Bft) 94,00 %
26.05.2017 20:36 19,7 C 22,8 C 56 % 1017,6 hPa 0,0 l/m 4,9 km/h (1 Bft) O 98 2 min 0,000 mm 0,0 UV-I 11 W/m 10,7 C 19,7 C 6,4 km/h (2 Bft) 97,44 %
26.05.2017 20:38 19,7 C 22,8 C 57 % 1017,6 hPa 0,0 l/m 4,6 km/h (1 Bft) O 98 0 min 0,000 mm 0,0 UV-I 10 W/m 10,9 C 19,7 C 6,4 km/h (2 Bft) 96,00 %
26.05.2017 20:40 19,6 C 22,8 C 57 % 1017,6 hPa 0,0 l/m 6,3 km/h (2 Bft) O 98 0 min 0,000 mm 0,0 UV-I 9 W/m 10,8 C 19,6 C 9,7 km/h (2 Bft) 89,36 %
26.05.2017 20:42 19,6 C 22,8 C 56 % 1017,6 hPa 0,0 l/m 4,4 km/h (1 Bft) O 98 0 min 0,000 mm 0,0 UV-I 9 W/m 10,6 C 19,6 C 6,4 km/h (2 Bft) 96,00 %
26.05.2017 20:44 19,6 C 22,8 C 58 % 1017,6 hPa 0,0 l/m 4,3 km/h (1 Bft) O 98 0 min 0,000 mm 0,0 UV-I 9 W/m 11,1 C 19,6 C 6,4 km/h (2 Bft) 98,00 %
26.05.2017 20:46 19,5 C 22,8 C 57 % 1017,6 hPa 0,0 l/m 4,7 km/h (1 Bft) O 98 0 min 0,000 mm 0,0 UV-I 7 W/m 10,8 C 19,5 C 6,4 km/h (2 Bft) 94,29 %
26.05.2017 20:48 19,5 C 22,8 C 58 % 1017,6 hPa 0,0 l/m 4,2 km/h (1 Bft) O 98 0 min 0,000 mm 0,0 UV-I 7 W/m 11,0 C 19,5 C 6,4 km/h (2 Bft) 91,07 %
26.05.2017 20:50 19,5 C 22,8 C 57 % 1017,7 hPa 0,0 l/m 5,3 km/h (1 Bft) O 98 0 min 0,000 mm 0,0 UV-I 7 W/m 10,8 C 19,5 C 6,4 km/h (2 Bft) 94,00 %
26.05.2017 20:52 19,4 C 22,8 C 56 % 1017,7 hPa 0,0 l/m 4,2 km/h (1 Bft) O-SO 105 0 min 0,000 mm 0,0 UV-I 6 W/m 10,4 C 19,4 C 6,4 km/h (2 Bft) 94,74 %
26.05.2017 20:54 19,5 C 22,8 C 57 % 1017,7 hPa 0,0 l/m 5,0 km/h (1 Bft) O-SO 105 0 min 0,000 mm 0,0 UV-I 5 W/m 10,8 C 19,5 C 6,4 km/h (2 Bft) 94,00 %
26.05.2017 20:56 19,5 C 22,8 C 58 % 1017,7 hPa 0,0 l/m 3,3 km/h (1 Bft) O-SO 114 0 min 0,000 mm 0,0 UV-I 5 W/m 11,0 C 19,5 C 4,8 km/h (1 Bft) 88,00 %
26.05.2017 20:58 19,5 C 22,8 C 58 % 1017,7 hPa 0,0 l/m 3,4 km/h (1 Bft) O-SO 123 0 min 0,000 mm 0,0 UV-I 5 W/m 11,0 C 19,5 C 4,8 km/h (1 Bft) 89,47 %
26.05.2017 21:00 19,4 C 22,8 C 58 % 1017,7 hPa 0,0 l/m 2,7 km/h (1 Bft) O-SO 123 0 min 0,000 mm 0,0 UV-I 5 W/m 10,9 C 19,4 C 4,8 km/h (1 Bft) 93,62 %
26.05.2017 21:02 19,3 C 22,8 C 60 % 1017,7 hPa 0,0 l/m 3,6 km/h (1 Bft) O-SO 123 0 min 0,051 mm 0,0 UV-I 5 W/m 11,3 C 19,3 C 4,8 km/h (1 Bft) 94,00 %
26.05.2017 21:04 19,1 C 22,8 C 59 % 1017,7 hPa 0,0 l/m 4,8 km/h (1 Bft) O 96 0 min 0,000 mm 0,0 UV-I 5 W/m 10,9 C 19,1 C 6,4 km/h (2 Bft) 92,45 %
26.05.2017 21:06 19,0 C 22,8 C 58 % 1017,7 hPa 0,0 l/m 5,4 km/h (1 Bft) O 96 0 min 0,000 mm 0,0 UV-I 5 W/m 10,5 C 19,0 C 6,4 km/h (2 Bft) 93,62 %
26.05.2017 21:08 19,0 C 22,8 C 57 % 1017,7 hPa 0,0 l/m 5,0 km/h (1 Bft) O 100 0 min 0,000 mm 0,0 UV-I 0 W/m 10,3 C 19,0 C 9,7 km/h (2 Bft) 94,74 %
26.05.2017 21:10 19,1 C 22,8 C 59 % 1017,8 hPa 0,0 l/m 4,4 km/h (1 Bft) O-SO 111 0 min 0,000 mm 0,0 UV-I 0 W/m 10,9 C 19,1 C 6,4 km/h (2 Bft) 97,22 %
26.05.2017 21:12 19,0 C 22,8 C 58 % 1017,7 hPa 0,0 l/m 2,7 km/h (1 Bft) O-SO 111 0 min 0,000 mm 0,0 UV-I 0 W/m 10,5 C 19,0 C 4,8 km/h (1 Bft) 93,75 %
26.05.2017 21:14 18,9 C 22,8 C 59 % 1017,7 hPa 0,0 l/m 2,5 km/h (1 Bft) O-SO 111 0 min 0,000 mm 0,0 UV-I 0 W/m 10,7 C 18,9 C 4,8 km/h (1 Bft) 98,00 %
26.05.2017 21:16 18,8 C 22,8 C 62 % 1017,8 hPa 0,0 l/m 3,0 km/h (1 Bft) O-SO 111 0 min 0,000 mm 0,0 UV-I 0 W/m 11,4 C 18,8 C 4,8 km/h (1 Bft) 92,31 %
26.05.2017 21:18 18,6 C 22,8 C 61 % 1017,8 hPa 0,0 l/m 3,8 km/h (1 Bft) O-SO 111 0 min 0,000 mm 0,0 UV-I 0 W/m 10,9 C 18,6 C 6,4 km/h (2 Bft) 93,62 %
26.05.2017 21:20 18,4 C 22,8 C 63 % 1017,8 hPa 0,0 l/m 1,9 km/h (1 Bft) O-SO 111 0 min 0,000 mm 0,0 UV-I 0 W/m 11,2 C 18,4 C 3,2 km/h (1 Bft) 94,74 %
26.05.2017 21:22 18,3 C 22,8 C 63 % 1017,8 hPa 0,0 l/m 2,2 km/h (1 Bft) O-SO 111 0 min 0,000 mm 0,0 UV-I 0 W/m 11,1 C 18,3 C 4,8 km/h (1 Bft) 98,31 %
26.05.2017 21:24 18,2 C 22,8 C 62 % 1017,9 hPa 0,0 l/m 3,2 km/h (1 Bft) O-SO 111 0 min 0,000 mm 0,0 UV-I 0 W/m 10,8 C 18,2 C 4,8 km/h (1 Bft) 97,87 %
26.05.2017 21:26 18,1 C 22,8 C 63 % 1017,9 hPa 0,0 l/m 1,6 km/h (1 Bft) O-SO 111 0 min 0,000 mm 0,0 UV-I 0 W/m 10,9 C 18,1 C 3,2 km/h (1 Bft) 95,74 %
26.05.2017 21:28 17,9 C 22,8 C 64 % 1017,9 hPa 0,0 l/m 2,3 km/h (1 Bft) O-SO 111 0 min 0,000 mm 0,0 UV-I 0 W/m 11,0 C 17,9 C 4,8 km/h (1 Bft) 95,12 %
26.05.2017 21:30 17,8 C 22,8 C 65 % 1017,9 hPa 0,0 l/m 1,3 km/h (1 Bft) O-SO 111 0 min 0,000 mm 0,0 UV-I 0 W/m 11,1 C 17,8 C 3,2 km/h (1 Bft) 100,00 %
26.05.2017 21:32 17,7 C 22,8 C 65 % 1017,9 hPa 0,0 l/m 0,6 km/h (0 Bft) O-SO 111 0 min 0,000 mm 0,0 UV-I 0 W/m 11,0 C 17,7 C 1,6 km/h (1 Bft) 93,62 %
26.05.2017 21:34 17,6 C 22,8 C 66 % 1018,0 hPa 0,0 l/m 0,8 km/h (0 Bft) O-SO 111 0 min 0,000 mm 0,0 UV-I 0 W/m 11,2 C 17,6 C 1,6 km/h (1 Bft) 95,74 %
26.05.2017 21:36 17,6 C 22,8 C 67 % 1018,0 hPa 0,0 l/m 0,1 km/h (0 Bft) O-SO 111 0 min 0,000 mm 0,0 UV-I 0 W/m 11,4 C 17,6 C 1,6 km/h (1 Bft) 96,00 %
26.05.2017 21:38 17,6 C 22,8 C 66 % 1018,0 hPa 0,0 l/m 0,0 km/h (0 Bft) O-SO 111 0 min 0,000 mm 0,0 UV-I 0 W/m 11,2 C 17,6 C 0,0 km/h (0 Bft) 95,74 %
26.05.2017 21:40 17,6 C 22,8 C 65 % 1018,0 hPa 0,0 l/m 0,0 km/h (0 Bft) O-SO 111 0 min 0,000 mm 0,0 UV-I 0 W/m 10,9 C 17,6 C 0,0 km/h (0 Bft) 100,00 %
26.05.2017 21:42 17,6 C 22,8 C 66 % 1018,0 hPa 0,0 l/m 0,0 km/h (0 Bft) O-SO 111 0 min 0,000 mm 0,0 UV-I 0 W/m 11,2 C 17,6 C 0,0 km/h (0 Bft) 100,00 %
26.05.2017 21:44 17,6 C 22,8 C 67 % 1018,1 hPa 0,0 l/m 0,0 km/h (0 Bft) O-SO 111 0 min 0,000 mm 0,0 UV-I 0 W/m 11,4 C 17,6 C 0,0 km/h (0 Bft) 92,11 %
26.05.2017 21:46 17,5 C 22,8 C 68 % 1018,1 hPa 0,0 l/m 0,0 km/h (0 Bft) O-SO 111 0 min 0,000 mm 0,0 UV-I 0 W/m 11,5 C 17,5 C 0,0 km/h (0 Bft) 94,00 %
26.05.2017 21:48 17,5 C 22,8 C 67 % 1018,2 hPa 0,0 l/m 0,0 km/h (0 Bft) O-SO 111 0 min 0,000 mm 0,0 UV-I 0 W/m 11,3 C 17,5 C 0,0 km/h (0 Bft) 97,56 %
26.05.2017 21:50 17,5 C 22,8 C 68 % 1018,2 hPa 0,0 l/m 0,0 km/h (0 Bft) O-SO 111 0 min 0,000 mm 0,0 UV-I 0 W/m 11,5 C 17,5 C 0,0 km/h (0 Bft) 100,00 %
26.05.2017 21:52 17,5 C 22,8 C 68 % 1018,2 hPa 0,0 l/m 0,0 km/h (0 Bft) O-SO 111 0 min 0,000 mm 0,0 UV-I 0 W/m 11,5 C 17,5 C 0,0 km/h (0 Bft) 95,74 %
26.05.2017 21:54 17,5 C 22,8 C 67 % 1018,2 hPa 0,0 l/m 0,0 km/h (0 Bft) O-SO 111 0 min 0,000 mm 0,0 UV-I 0 W/m 11,3 C 17,5 C 0,0 km/h (0 Bft) 96,00 %
26.05.2017 21:56 17,5 C 22,8 C 67 % 1018,3 hPa 0,0 l/m 0,0 km/h (0 Bft) O-SO 111 0 min 0,000 mm 0,0 UV-I 0 W/m 11,3 C 17,5 C 0,0 km/h (0 Bft) 95,74 %
26.05.2017 21:58 17,5 C 22,8 C 66 % 1018,3 hPa 0,0 l/m 0,0 km/h (0 Bft) O-SO 111 0 min 0,000 mm 0,0 UV-I 0 W/m 11,1 C 17,5 C 0,0 km/h (0 Bft) 93,75 %
26.05.2017 22:00 17,5 C 22,8 C 66 % 1018,3 hPa 0,0 l/m 0,0 km/h (0 Bft) O-SO 111 0 min 0,000 mm 0,0 UV-I 0 W/m 11,1 C 17,5 C 0,0 km/h (0 Bft) 97,37 %
26.05.2017 22:02 17,5 C 22,8 C 65 % 1018,3 hPa 0,0 l/m 0,0 km/h (0 Bft) O-SO 111 0 min 0,026 mm 0,0 UV-I 0 W/m 10,8 C 17,5 C 0,0 km/h (0 Bft) 100,00 %
26.05.2017 22:04 17,4 C 22,8 C 67 % 1018,3 hPa 0,0 l/m 0,0 km/h (0 Bft) O-SO 111 0 min 0,000 mm 0,0 UV-I 0 W/m 11,2 C 17,4 C 0,0 km/h (0 Bft) 98,00 %
26.05.2017 22:06 17,4 C 22,8 C 69 % 1018,3 hPa 0,0 l/m 0,0 km/h (0 Bft) O-SO 111 0 min 0,000 mm 0,0 UV-I 0 W/m 11,7 C 17,4 C 0,0 km/h (0 Bft) 98,00 %
26.05.2017 22:08 17,3 C 22,8 C 69 % 1018,4 hPa 0,0 l/m 1,3 km/h (1 Bft) O-SO 111 0 min 0,000 mm 0,0 UV-I 0 W/m 11,6 C 17,3 C 3,2 km/h (1 Bft) 100,00 %
26.05.2017 22:10 17,3 C 22,8 C 69 % 1018,4 hPa 0,0 l/m 1,8 km/h (1 Bft) O-SO 111 0 min 0,000 mm 0,0 UV-I 0 W/m 11,6 C 17,3 C 3,2 km/h (1 Bft) 93,62 %
26.05.2017 22:12 17,3 C 22,8 C 68 % 1018,4 hPa 0,0 l/m 1,1 km/h (1 Bft) O-SO 111 0 min 0,000 mm 0,0 UV-I 0 W/m 11,3 C 17,3 C 1,6 km/h (1 Bft) 98,11 %
26.05.2017 22:14 17,3 C 22,8 C 66 % 1018,4 hPa 0,0 l/m 0,0 km/h (0 Bft) O-SO 111 0 min 0,000 mm 0,0 UV-I 0 W/m 10,9 C 17,3 C 0,0 km/h (0 Bft) 96,00 %
26.05.2017 22:16 17,2 C 22,8 C 68 % 1018,4 hPa 0,0 l/m 0,0 km/h (0 Bft) O-SO 111 0 min 0,000 mm 0,0 UV-I 0 W/m 11,2 C 17,2 C 0,0 km/h (0 Bft) 97,37 %
26.05.2017 22:18 17,2 C 22,8 C 67 % 1018,4 hPa 0,0 l/m 0,0 km/h (0 Bft) O-SO 111 0 min 0,000 mm 0,0 UV-I 0 W/m 11,0 C 17,2 C 0,0 km/h (0 Bft) 97,87 %
26.05.2017 22:20 17,3 C 22,8 C 66 % 1018,3 hPa 0,0 l/m 0,0 km/h (0 Bft) O-SO 111 0 min 0,000 mm 0,0 UV-I 0 W/m 10,9 C 17,3 C 0,0 km/h (0 Bft) 94,00 %
26.05.2017 22:22 17,3 C 22,8 C 66 % 1018,4 hPa 0,0 l/m 0,0 km/h (0 Bft) O-SO 111 0 min 0,000 mm 0,0 UV-I 0 W/m 10,9 C 17,3 C 0,0 km/h (0 Bft) 92,00 %
26.05.2017 22:24 17,4 C 22,8 C 66 % 1018,4 hPa 0,0 l/m 0,0 km/h (0 Bft) O-SO 111 0 min 0,000 mm 0,0 UV-I 0 W/m 11,0 C 17,4 C 0,0 km/h (0 Bft) 97,87 %
26.05.2017 22:26 17,3 C 22,8 C 67 % 1018,4 hPa 0,0 l/m 0,0 km/h (0 Bft) O-SO 111 0 min 0,000 mm 0,0 UV-I 0 W/m 11,1 C 17,3 C 0,0 km/h (0 Bft) 100,00 %
26.05.2017 22:28 17,3 C 22,8 C 67 % 1018,4 hPa 0,0 l/m 0,0 km/h (0 Bft) O-SO 111 0 min 0,000 mm 0,0 UV-I 0 W/m 11,1 C 17,3 C 0,0 km/h (0 Bft) 98,00 %
26.05.2017 22:30 17,3 C 22,8 C 68 % 1018,4 hPa 0,0 l/m 0,0 km/h (0 Bft) O-SO 111 0 min 0,000 mm 0,0 UV-I 0 W/m 11,3 C 17,3 C 0,0 km/h (0 Bft) 96,00 %
26.05.2017 22:32 17,3 C 22,8 C 70 % 1018,4 hPa 0,0 l/m 0,0 km/h (0 Bft) O-SO 111 0 min 0,000 mm 0,0 UV-I 0 W/m 11,8 C 17,3 C 0,0 km/h (0 Bft) 94,00 %
26.05.2017 22:34 17,1 C 22,8 C 71 % 1018,4 hPa 0,0 l/m 0,0 km/h (0 Bft) O-SO 111 0 min 0,000 mm 0,0 UV-I 0 W/m 11,8 C 17,1 C 0,0 km/h (0 Bft) 97,87 %
26.05.2017 22:36 17,0 C 22,8 C 71 % 1018,4 hPa 0,0 l/m 0,0 km/h (0 Bft) O-SO 111 0 min 0,000 mm 0,0 UV-I 0 W/m 11,7 C 17,0 C 0,0 km/h (0 Bft) 94,44 %
26.05.2017 22:38 16,9 C 22,8 C 71 % 1018,4 hPa 0,0 l/m 0,0 km/h (0 Bft) O-SO 111 0 min 0,000 mm 0,0 UV-I 0 W/m 11,6 C 16,9 C 0,0 km/h (0 Bft) 100,00 %
26.05.2017 22:40 16,7 C 22,8 C 71 % 1018,4 hPa 0,0 l/m 0,0 km/h (0 Bft) O-SO 111 0 min 0,000 mm 0,0 UV-I 0 W/m 11,4 C 16,7 C 0,0 km/h (0 Bft) 95,74 %
26.05.2017 22:42 16,6 C 22,8 C 72 % 1018,4 hPa 0,0 l/m 0,0 km/h (0 Bft) O-SO 111 0 min 0,000 mm 0,0 UV-I 0 W/m 11,5 C 16,6 C 0,0 km/h (0 Bft) 96,00 %
26.05.2017 22:44 16,4 C 22,2 C 72 % 1018,4 hPa 0,0 l/m 0,0 km/h (0 Bft) O-SO 111 0 min 0,000 mm 0,0 UV-I 0 W/m 11,3 C 16,4 C 0,0 km/h (0 Bft) 95,74 %
26.05.2017 22:46 16,4 C 22,2 C 73 % 1018,4 hPa 0,0 l/m 0,0 km/h (0 Bft) O-SO 111 0 min 0,000 mm 0,0 UV-I 0 W/m 11,5 C 16,4 C 0,0 km/h (0 Bft) 96,00 %
26.05.2017 22:48 16,3 C 22,8 C 73 % 1018,4 hPa 0,0 l/m 0,0 km/h (0 Bft) O-SO 111 0 min 0,000 mm 0,0 UV-I 0 W/m 11,4 C 16,3 C 0,0 km/h (0 Bft) 94,74 %
26.05.2017 22:50 16,3 C 22,2 C 73 % 1018,4 hPa 0,0 l/m 0,0 km/h (0 Bft) O-SO 111 0 min 0,000 mm 0,0 UV-I 0 W/m 11,4 C 16,3 C 0,0 km/h (0 Bft) 95,74 %
26.05.2017 22:52 16,3 C 22,2 C 73 % 1018,4 hPa 0,0 l/m 0,0 km/h (0 Bft) O-SO 111 0 min 0,000 mm 0,0 UV-I 0 W/m 11,4 C 16,3 C 0,0 km/h (0 Bft) 94,64 %
26.05.2017 22:54 16,2 C 22,2 C 73 % 1018,4 hPa 0,0 l/m 0,0 km/h (0 Bft) O-SO 111 0 min 0,000 mm 0,0 UV-I 0 W/m 11,4 C 16,2 C 0,0 km/h (0 Bft) 97,37 %
26.05.2017 22:56 16,1 C 22,2 C 73 % 1018,4 hPa 0,0 l/m 0,0 km/h (0 Bft) O-SO 111 0 min 0,000 mm 0,0 UV-I 0 W/m 11,3 C 16,1 C 0,0 km/h (0 Bft) 92,00 %
26.05.2017 22:58 16,0 C 22,2 C 73 % 1018,4 hPa 0,0 l/m 0,0 km/h (0 Bft) O-SO 111 0 min 0,000 mm 0,0 UV-I 0 W/m 11,2 C 16,0 C 0,0 km/h (0 Bft) 95,74 %
26.05.2017 23:00 15,9 C 22,2 C 73 % 1018,5 hPa 0,0 l/m 0,0 km/h (0 Bft) O-SO 111 0 min 0,000 mm 0,0 UV-I 0 W/m 11,1 C 15,9 C 0,0 km/h (0 Bft) 95,12 %
26.05.2017 23:02 15,9 C 22,2 C 75 % 1018,5 hPa 0,0 l/m 0,0 km/h (0 Bft) O-SO 111 0 min 0,000 mm 0,0 UV-I 0 W/m 11,5 C 15,9 C 0,0 km/h (0 Bft) 96,00 %
26.05.2017 23:04 15,8 C 22,2 C 75 % 1018,5 hPa 0,0 l/m 0,0 km/h (0 Bft) O-SO 111 0 min 0,000 mm 0,0 UV-I 0 W/m 11,4 C 15,8 C 1,6 km/h (1 Bft) 95,74 %
26.05.2017 23:06 15,8 C 22,2 C 75 % 1018,5 hPa 0,0 l/m 0,3 km/h (0 Bft) O-SO 111 0 min 0,000 mm 0,0 UV-I 0 W/m 11,4 C 15,8 C 1,6 km/h (1 Bft) 96,00 %
26.05.2017 23:08 15,8 C 22,2 C 73 % 1018,5 hPa 0,0 l/m 0,0 km/h (0 Bft) O-SO 111 0 min 0,000 mm 0,0 UV-I 0 W/m 11,0 C 15,8 C 0,0 km/h (0 Bft) 98,00 %
26.05.2017 23:10 15,9 C 22,2 C 72 % 1018,5 hPa 0,0 l/m 0,0 km/h (0 Bft) O-SO 111 0 min 0,000 mm 0,0 UV-I 0 W/m 10,9 C 15,9 C 0,0 km/h (0 Bft) 93,62 %
26.05.2017 23:12 15,9 C 22,2 C 72 % 1018,5 hPa 0,0 l/m 2,3 km/h (1 Bft) O-SO 111 0 min 0,000 mm 0,0 UV-I 0 W/m 10,9 C 15,9 C 3,2 km/h (1 Bft) 95,24 %
26.05.2017 23:14 16,0 C 22,2 C 71 % 1018,6 hPa 0,0 l/m 2,6 km/h (1 Bft) O-SO 111 0 min 0,000 mm 0,0 UV-I 0 W/m 10,7 C 16,0 C 3,2 km/h (1 Bft) 93,88 %
26.05.2017 23:16 16,1 C 22,2 C 71 % 1018,6 hPa 0,0 l/m 1,3 km/h (1 Bft) O-SO 111 0 min 0,000 mm 0,0 UV-I 0 W/m 10,8 C 16,1 C 3,2 km/h (1 Bft) 95,24 %
26.05.2017 23:18 16,0 C 22,2 C 72 % 1018,6 hPa 0,0 l/m 1,1 km/h (1 Bft) O-SO 111 0 min 0,000 mm 0,0 UV-I 0 W/m 11,0 C 16,0 C 1,6 km/h (1 Bft) 95,74 %
26.05.2017 23:20 16,0 C 22,2 C 72 % 1018,6 hPa 0,0 l/m 1,9 km/h (1 Bft) O-SO 111 0 min 0,000 mm 0,0 UV-I 0 W/m 11,0 C 16,0 C 3,2 km/h (1 Bft) 90,00 %
26.05.2017 23:22 15,9 C 22,2 C 71 % 1018,6 hPa 0,0 l/m 2,3 km/h (1 Bft) O-SO 111 0 min 0,000 mm 0,0 UV-I 0 W/m 10,6 C 15,9 C 3,2 km/h (1 Bft) 96,00 %
26.05.2017 23:24 15,9 C 22,2 C 71 % 1018,6 hPa 0,0 l/m 2,0 km/h (1 Bft) O-SO 111 0 min 0,000 mm 0,0 UV-I 0 W/m 10,6 C 15,9 C 3,2 km/h (1 Bft) 95,74 %
26.05.2017 23:26 15,9 C 22,2 C 72 % 1018,6 hPa 0,0 l/m 2,0 km/h (1 Bft) O-SO 111 0 min 0,000 mm 0,0 UV-I 0 W/m 10,9 C 15,9 C 3,2 km/h (1 Bft) 98,00 %
26.05.2017 23:28 15,9 C 22,2 C 72 % 1018,6 hPa 0,0 l/m 3,2 km/h (1 Bft) O-SO 111 0 min 0,000 mm 0,0 UV-I 0 W/m 10,9 C 15,9 C 4,8 km/h (1 Bft) 100,00 %
26.05.2017 23:30 15,9 C 22,2 C 72 % 1018,6 hPa 0,0 l/m 3,3 km/h (1 Bft) O-SO 113 0 min 0,000 mm 0,0 UV-I 0 W/m 10,9 C 15,9 C 4,8 km/h (1 Bft) 98,00 %
26.05.2017 23:32 15,9 C 22,2 C 73 % 1018,6 hPa 0,0 l/m 3,5 km/h (1 Bft) O-SO 113 0 min 0,000 mm 0,0 UV-I 0 W/m 11,1 C 15,9 C 4,8 km/h (1 Bft) 97,14 %
26.05.2017 23:34 15,9 C 22,2 C 74 % 1018,6 hPa 0,0 l/m 3,2 km/h (1 Bft) O-SO 113 0 min 0,000 mm 0,0 UV-I 0 W/m 11,3 C 15,9 C 3,2 km/h (1 Bft) 96,00 %
26.05.2017 23:36 15,8 C 22,2 C 73 % 1018,7 hPa 0,0 l/m 2,2 km/h (1 Bft) O-SO 113 0 min 0,000 mm 0,0 UV-I 0 W/m 11,0 C 15,8 C 3,2 km/h (1 Bft) 96,00 %
26.05.2017 23:38 15,8 C 22,2 C 73 % 1018,7 hPa 0,0 l/m 1,1 km/h (1 Bft) O-SO 113 0 min 0,000 mm 0,0 UV-I 0 W/m 11,0 C 15,8 C 3,2 km/h (1 Bft) 97,87 %
26.05.2017 23:40 15,7 C 22,2 C 74 % 1018,7 hPa 0,0 l/m 0,4 km/h (0 Bft) O-SO 113 0 min 0,000 mm 0,0 UV-I 0 W/m 11,1 C 15,7 C 1,6 km/h (1 Bft) 95,12 %
26.05.2017 23:42 15,7 C 22,2 C 73 % 1018,7 hPa 0,0 l/m 0,1 km/h (0 Bft) O-SO 113 0 min 0,000 mm 0,0 UV-I 0 W/m 10,9 C 15,7 C 1,6 km/h (1 Bft) 98,00 %
26.05.2017 23:44 15,6 C 22,2 C 74 % 1018,7 hPa 0,0 l/m 0,4 km/h (0 Bft) O-SO 113 0 min 0,000 mm 0,0 UV-I 0 W/m 11,0 C 15,6 C 1,6 km/h (1 Bft) 98,00 %
26.05.2017 23:46 15,6 C 22,2 C 74 % 1018,7 hPa 0,0 l/m 0,9 km/h (0 Bft) O-SO 113 0 min 0,000 mm 0,0 UV-I 0 W/m 11,0 C 15,6 C 1,6 km/h (1 Bft) 94,00 %
26.05.2017 23:48 15,7 C 22,2 C 73 % 1018,7 hPa 0,0 l/m 0,0 km/h (0 Bft) O-SO 113 0 min 0,000 mm 0,0 UV-I 0 W/m 10,9 C 15,7 C 1,6 km/h (1 Bft) 97,37 %
26.05.2017 23:50 15,8 C 22,2 C 72 % 1018,7 hPa 0,0 l/m 0,0 km/h (0 Bft) O-SO 113 0 min 0,000 mm 0,0 UV-I 0 W/m 10,8 C 15,8 C 0,0 km/h (0 Bft) 96,00 %
26.05.2017 23:52 15,9 C 22,2 C 72 % 1018,7 hPa 0,0 l/m 0,4 km/h (0 Bft) O-SO 113 0 min 0,000 mm 0,0 UV-I 0 W/m 10,9 C 15,9 C 3,2 km/h (1 Bft) 94,44 %
26.05.2017 23:54 15,9 C 22,2 C 71 % 1018,7 hPa 0,0 l/m 1,9 km/h (1 Bft) O-SO 113 0 min 0,000 mm 0,0 UV-I 0 W/m 10,6 C 15,9 C 3,2 km/h (1 Bft) 97,01 %
26.05.2017 23:56 16,0 C 22,2 C 72 % 1018,8 hPa 0,0 l/m 1,3 km/h (1 Bft) O-SO 113 0 min 0,000 mm 0,0 UV-I 0 W/m 11,0 C 16,0 C 3,2 km/h (1 Bft) 94,44 %
26.05.2017 23:58 16,0 C 22,2 C 72 % 1018,8 hPa 0,0 l/m 0,0 km/h (0 Bft) O-SO 113 0 min 0,000 mm 0,0 UV-I 0 W/m 11,0 C 16,0 C 0,0 km/h (0 Bft) 96,00 %
_ Min-Zeit 05:21 02:41 16:02 18:20 - 02:04 - - - - - - 16:02 05:22 19:20 05:22
Minimum _ 10,4 C 20,6 C 38 % 1017,2 hPa - 0,0 km/h (0 Bft) - - - - - - 7,6 C 10,4 C 0,0 km/h (0 Bft) 83,33 %
_ Max-Zeit 16:56 15:56 05:18 08:44 00:00 13:10 - - 06:44 14:00 13:08 11:46 19:34 16:56 13:42 00:05
Maximum _ 23,1 C 22,8 C 87 % 1020,4 hPa 0,0 l/m 17,2 km/h
W-SW (3 Bft)
- - 8 min 0,584 mm 6,2 UV-I 1030 W/m 11,9 C 23,1 C 27,4 km/h
W-SW (4 Bft)
100,00 %
Durchschnitt _ 17,2 C 21,6 C 64 % 1019,0 hPa #0,0 l/m 4,2 km/h (1 Bft) S-SW - #12:08 h #5,182 mm 3,4 UV-I 489 W/m 9,7 C 17,1 C 7,8 km/h (2 Bft) 96,81 %